| time (UTC) | temp F | wind direction | speed knots | gust knots | rain 1hr in | rain 24hr in | rain mn in | humidity % | barometer mb |
| 20260502203534 | 60 | 325 | 7.0 | 14.8 | 0.00 | 0.00 | 0.00 | 38 | 1011.9 |
| 20260502203433 | 60 | 343 | 2.6 | 14.8 | 0.00 | 0.00 | 0.00 | 38 | 1011.9 |
| 20260502203331 | 60 | 340 | 1.7 | 14.8 | 0.00 | 0.00 | 0.00 | 39 | 1011.9 |
| 20260502203250 | 60 | 339 | 3.5 | 14.8 | 0.00 | 0.00 | 0.00 | 39 | 1011.9 |
| 20260502203159 | 60 | 325 | 5.2 | 14.8 | 0.00 | 0.00 | 0.00 | 39 | 1011.9 |
| 20260502203036 | 60 | 330 | 7.8 | 14.8 | 0.00 | 0.00 | 0.00 | 40 | 1011.9 |
| 20260502202934 | 60 | 322 | 3.5 | 13.0 | 0.00 | 0.00 | 0.00 | 40 | 1011.9 |
| 20260502202833 | 60 | 315 | 7.0 | 13.0 | 0.00 | 0.00 | 0.00 | 39 | 1011.9 |
| 20260502202735 | 60 | 335 | 8.7 | 12.2 | 0.00 | 0.00 | 0.00 | 39 | 1011.9 |
| 20260502202633 | 60 | 319 | 7.0 | 11.3 | 0.00 | 0.00 | 0.00 | 38 | 1011.9 |
| 20260502202532 | 60 | 330 | 5.2 | 11.3 | 0.00 | 0.00 | 0.00 | 36 | 1011.9 |
| 20260502202430 | 60 | 326 | 6.1 | 11.3 | 0.00 | 0.00 | 0.00 | 37 | 1011.9 |
| 20260502202331 | 60 | 330 | 7.8 | 11.3 | 0.00 | 0.00 | 0.00 | 38 | 1011.9 |
| 20260502202228 | 60 | 323 | 4.3 | 12.2 | 0.00 | 0.00 | 0.00 | 40 | 1011.9 |
| 20260502202133 | 60 | 328 | 4.3 | 12.2 | 0.00 | 0.00 | 0.00 | 38 | 1011.9 |
| 20260502202031 | 60 | 329 | 8.7 | 12.2 | 0.00 | 0.00 | 0.00 | 39 | 1011.9 |
| 20260502201930 | 60 | 339 | 5.2 | 12.2 | 0.00 | 0.00 | 0.00 | 36 | 1011.9 |
| 20260502201828 | 60 | 329 | 7.8 | 12.2 | 0.00 | 0.00 | 0.00 | 39 | 1011.9 |
| 20260502201727 | 60 | 325 | 7.8 | 12.2 | 0.00 | 0.00 | 0.00 | 38 | 1011.9 |
| 20260502201656 | 60 | 329 | 6.1 | 13.0 | 0.00 | 0.00 | 0.00 | 38 | 1011.9 |
| 20260502201534 | 60 | 325 | 7.0 | 13.9 | 0.00 | 0.00 | 0.00 | 36 | 1011.9 |
| 20260502201436 | 60 | 333 | 7.8 | 13.9 | 0.00 | 0.00 | 0.00 | 36 | 1011.9 |
| 20260502201335 | 61 | 333 | 5.2 | 13.9 | 0.00 | 0.00 | 0.00 | 36 | 1011.7 |
| 20260502201234 | 61 | 326 | 7.0 | 13.9 | 0.00 | 0.00 | 0.00 | 36 | 1011.7 |
| 20260502201133 | 61 | 340 | 8.7 | 16.5 | 0.00 | 0.00 | 0.00 | 36 | 1011.7 |
| 20260502201031 | 61 | 339 | 7.8 | 16.5 | 0.00 | 0.00 | 0.00 | 35 | 1011.7 |
| 20260502200929 | 61 | 250 | 7.0 | 16.5 | 0.00 | 0.00 | 0.00 | 35 | 1011.7 |
| 20260502200830 | 61 | 340 | 7.8 | 16.5 | 0.00 | 0.00 | 0.00 | 34 | 1011.7 |
| 20260502200733 | 61 | 356 | 6.1 | 16.5 | 0.00 | 0.00 | 0.00 | 35 | 1011.7 |
| 20260502200631 | 61 | 328 | 9.6 | 16.5 | 0.00 | 0.00 | 0.00 | 34 | 1011.7 |
| 20260502200530 | 62 | 191 | 6.1 | 16.5 | 0.00 | 0.00 | 0.00 | 35 | 1011.7 |
| 20260502200428 | 62 | 330 | 7.8 | 16.5 | 0.00 | 0.00 | 0.00 | 35 | 1011.7 |
| 20260502200326 | 62 | 323 | 10.4 | 16.5 | 0.00 | 0.00 | 0.00 | 35 | 1011.7 |
| 20260502200244 | 62 | 332 | 7.0 | 13.9 | 0.00 | 0.00 | 0.00 | 37 | 1011.7 |
| 20260502200216 | 62 | 333 | 7.8 | 14.8 | 0.00 | 0.00 | 0.00 | 36 | 1011.7 |
| 20260502200035 | 62 | 330 | 7.0 | 15.6 | 0.00 | 0.00 | 0.00 | 36 | 1011.7 |
| 20260502195933 | 62 | 319 | 5.2 | 15.6 | 0.00 | 0.00 | 0.00 | 34 | 1011.7 |
| 20260502195832 | 62 | 335 | 7.8 | 15.6 | 0.00 | 0.00 | 0.00 | 34 | 1012.1 |
| 20260502195731 | 62 | 344 | 6.1 | 15.6 | 0.00 | 0.00 | 0.00 | 36 | 1012.1 |
| 20260502195648 | 62 | 32 | 7.0 | 15.6 | 0.00 | 0.00 | 0.00 | 35 | 1012.1 |
| 20260502195525 | 61 | 260 | 8.7 | 15.6 | 0.00 | 0.00 | 0.00 | 36 | 1012.1 |
| 20260502195424 | 61 | 346 | 2.6 | 15.6 | 0.00 | 0.00 | 0.00 | 36 | 1012.1 |
| 20260502195343 | 61 | 328 | 11.3 | 15.6 | 0.00 | 0.00 | 0.00 | 35 | 1012.1 |
| 20260502195229 | 61 | 325 | 11.3 | 15.6 | 0.00 | 0.00 | 0.00 | 37 | 1012.1 |
| 20260502195146 | 61 | 322 | 9.6 | 15.6 | 0.00 | 0.00 | 0.00 | 37 | 1012.1 |
| 20260502195105 | 61 | 325 | 7.0 | 15.6 | 0.00 | 0.00 | 0.00 | 37 | 1012.1 |
| 20260502194942 | 61 | 323 | 7.8 | 15.6 | 0.00 | 0.00 | 0.00 | 36 | 1012.1 |
| 20260502194840 | 61 | 312 | 5.2 | 15.6 | 0.00 | 0.00 | 0.00 | 38 | 1012.1 |
| 20260502194739 | 61 | 318 | 5.2 | 15.6 | 0.00 | 0.00 | 0.00 | 38 | 1012.1 |
| 20260502194709 | 61 | 320 | 9.6 | 15.6 | 0.00 | 0.00 | 0.00 | 36 | 1012.1 |
| 20260502194525 | 61 | 308 | 10.4 | 14.8 | 0.00 | 0.00 | 0.00 | 38 | 1012.1 |
| 20260502194426 | 61 | 311 | 5.2 | 14.8 | 0.00 | 0.00 | 0.00 | 37 | 1012.1 |
| 20260502194325 | 61 | 340 | 7.8 | 14.8 | 0.00 | 0.00 | 0.00 | 40 | 1012.3 |
| 20260502194243 | 61 | 329 | 6.1 | 14.8 | 0.00 | 0.00 | 0.00 | 40 | 1012.3 |
| 20260502194142 | 61 | 344 | 4.3 | 14.8 | 0.00 | 0.00 | 0.00 | 40 | 1012.3 |
| 20260502194040 | 61 | 332 | 4.3 | 14.8 | 0.00 | 0.00 | 0.00 | 38 | 1012.3 |
| 20260502193938 | 61 | 315 | 6.1 | 14.8 | 0.00 | 0.00 | 0.00 | 38 | 1012.3 |
| 20260502193837 | 61 | 339 | 7.8 | 14.8 | 0.00 | 0.00 | 0.00 | 37 | 1012.3 |
| 20260502193738 | 61 | 328 | 11.3 | 14.8 | 0.00 | 0.00 | 0.00 | 35 | 1012.3 |
| 20260502193636 | 61 | 357 | 8.7 | 14.8 | 0.00 | 0.00 | 0.00 | 36 | 1012.3 |
| 20260502193534 | 61 | 330 | 6.1 | 12.2 | 0.00 | 0.00 | 0.00 | 38 | 1012.3 |
| 20260502193432 | 61 | 328 | 7.8 | 12.2 | 0.00 | 0.00 | 0.00 | 38 | 1012.3 |
| 20260502193331 | 61 | 336 | 5.2 | 12.2 | 0.00 | 0.00 | 0.00 | 39 | 1012.3 |
| 20260502193241 | 61 | 326 | 4.3 | 12.2 | 0.00 | 0.00 | 0.00 | 38 | 1012.3 |
| 20260502193151 | 61 | 359 | 7.0 | 12.2 | 0.00 | 0.00 | 0.00 | 38 | 1012.3 |
| 20260502193032 | 61 | 357 | 6.1 | 12.2 | 0.00 | 0.00 | 0.00 | 38 | 1012.3 |
| 20260502192951 | 61 | 325 | 7.0 | 12.2 | 0.00 | 0.00 | 0.00 | 39 | 1012.3 |
| 20260502192830 | 61 | 332 | 3.5 | 12.2 | 0.00 | 0.00 | 0.00 | 39 | 1012.3 |
| 20260502192727 | 61 | 315 | 6.1 | 12.2 | 0.00 | 0.00 | 0.00 | 38 | 1012.3 |
| 20260502192625 | 61 | 330 | 7.8 | 12.2 | 0.00 | 0.00 | 0.00 | 37 | 1012.3 |
| 20260502192526 | 61 | 322 | 9.6 | 12.2 | 0.00 | 0.00 | 0.00 | 41 | 1012.3 |
| 20260502192424 | 61 | 312 | 6.1 | 12.2 | 0.00 | 0.00 | 0.00 | 40 | 1012.3 |
| 20260502192326 | 61 | 332 | 0.9 | 12.2 | 0.00 | 0.00 | 0.00 | 39 | 1012.3 |
| 20260502192245 | 61 | 326 | 6.1 | 14.8 | 0.00 | 0.00 | 0.00 | 38 | 1012.3 |
| 20260502192141 | 61 | 352 | 5.2 | 14.8 | 0.00 | 0.00 | 0.00 | 38 | 1012.3 |
| 20260502192100 | 61 | 349 | 6.1 | 14.8 | 0.00 | 0.00 | 0.00 | 38 | 1012.3 |
| 20260502192000 | 61 | 320 | 7.8 | 14.8 | 0.00 | 0.00 | 0.00 | 37 | 1012.3 |
| 20260502191838 | 61 | 322 | 6.1 | 16.5 | 0.00 | 0.00 | 0.00 | 37 | 1012.3 |
| 20260502191756 | 61 | 344 | 6.1 | 18.2 | 0.00 | 0.00 | 0.00 | 38 | 1012.3 |
| 20260502191725 | 61 | 325 | 7.0 | 18.2 | 0.00 | 0.00 | 0.00 | 37 | 1012.3 |
| 20260502191542 | 62 | 347 | 7.0 | 18.2 | 0.00 | 0.00 | 0.00 | 36 | 1012.3 |
| 20260502191425 | 62 | 337 | 8.7 | 18.2 | 0.00 | 0.00 | 0.00 | 35 | 1012.3 |
| 20260502191343 | 62 | 325 | 8.7 | 18.2 | 0.00 | 0.00 | 0.00 | 37 | 1012.3 |
| 20260502191242 | 62 | 326 | 7.8 | 18.2 | 0.00 | 0.00 | 0.00 | 35 | 1012.3 |
| 20260502191141 | 62 | 330 | 7.8 | 18.2 | 0.00 | 0.00 | 0.00 | 33 | 1012.3 |
| 20260502191040 | 62 | 337 | 11.3 | 18.2 | 0.00 | 0.00 | 0.00 | 36 | 1012.3 |
| 20260502190937 | 62 | 89 | 13.0 | 18.2 | 0.00 | 0.00 | 0.00 | 36 | 1012.3 |
| 20260502190836 | 62 | 339 | 8.7 | 14.8 | 0.00 | 0.00 | 0.00 | 39 | 1012.3 |
| 20260502190733 | 62 | 326 | 6.1 | 9.6 | 0.00 | 0.00 | 0.00 | 39 | 1012.3 |
| 20260502190636 | 62 | 160 | 3.5 | 9.6 | 0.00 | 0.00 | 0.00 | 35 | 1012.3 |
| 20260502190535 | 62 | 330 | 4.3 | 9.6 | 0.00 | 0.00 | 0.00 | 37 | 1012.3 |
| 20260502190434 | 62 | 335 | 6.1 | 13.9 | 0.00 | 0.00 | 0.00 | 34 | 1012.3 |
| 20260502190333 | 62 | 330 | 5.2 | 13.9 | 0.00 | 0.00 | 0.00 | 35 | 1012.3 |
| 20260502190232 | 62 | 157 | 3.5 | 15.6 | 0.00 | 0.00 | 0.00 | 34 | 1012.3 |
| 20260502190201 | 62 | 332 | 3.5 | 15.6 | 0.00 | 0.00 | 0.00 | 34 | 1012.3 |
| 20260502190037 | 62 | 352 | 6.1 | 15.6 | 0.00 | 0.00 | 0.00 | 36 | 1012.3 |
| 20260502185940 | 62 | 189 | 4.3 | 15.6 | 0.00 | 0.00 | 0.00 | 37 | 1012.3 |
| 20260502185837 | 62 | 104 | 3.5 | 15.6 | 0.00 | 0.00 | 0.00 | 36 | 1012.4 |
| 20260502185756 | 62 | 326 | 6.1 | 15.6 | 0.00 | 0.00 | 0.00 | 35 | 1012.4 |
| 20260502185632 | 62 | 335 | 9.6 | 15.6 | 0.00 | 0.00 | 0.00 | 36 | 1012.4 |
| 20260502185530 | 62 | 329 | 8.7 | 15.6 | 0.00 | 0.00 | 0.00 | 35 | 1012.4 |
| 20260502185428 | 62 | 333 | 9.6 | 15.6 | 0.00 | 0.00 | 0.00 | 38 | 1012.4 |
| 20260502185328 | 62 | 325 | 5.2 | 13.0 | 0.00 | 0.00 | 0.00 | 36 | 1012.4 |
| 20260502185229 | 62 | 326 | 8.7 | 16.5 | 0.00 | 0.00 | 0.00 | 36 | 1012.4 |
| 20260502185130 | 62 | 337 | 11.3 | 16.5 | 0.00 | 0.00 | 0.00 | 37 | 1012.4 |
| 20260502185026 | 62 | 339 | 6.1 | 16.5 | 0.00 | 0.00 | 0.00 | 37 | 1012.4 |
| 20260502184943 | 62 | 326 | 5.2 | 16.5 | 0.00 | 0.00 | 0.00 | 35 | 1012.4 |
| 20260502184838 | 62 | 328 | 3.5 | 16.5 | 0.00 | 0.00 | 0.00 | 34 | 1012.4 |
| 20260502184736 | 62 | 335 | 7.0 | 16.5 | 0.00 | 0.00 | 0.00 | 35 | 1012.4 |
| 20260502184705 | 62 | 332 | 5.2 | 16.5 | 0.00 | 0.00 | 0.00 | 38 | 1012.4 |
| 20260502184600 | 62 | 339 | 3.5 | 16.5 | 0.00 | 0.00 | 0.00 | 35 | 1012.4 |
| 20260502184438 | 62 | 357 | 8.7 | 16.5 | 0.00 | 0.00 | 0.00 | 36 | 1012.4 |
| 20260502184342 | 62 | 335 | 10.4 | 16.5 | 0.00 | 0.00 | 0.00 | 36 | 1012.4 |
| 20260502184240 | 62 | 333 | 7.8 | 15.6 | 0.00 | 0.00 | 0.00 | 37 | 1012.4 |
| 20260502184159 | 62 | 93 | 2.6 | 14.8 | 0.00 | 0.00 | 0.00 | 37 | 1012.4 |
| 20260502184036 | 62 | 332 | 4.3 | 14.8 | 0.00 | 0.00 | 0.00 | 36 | 1012.4 |
| 20260502183955 | 62 | 333 | 7.8 | 14.8 | 0.00 | 0.00 | 0.00 | 35 | 1012.4 |
| 20260502183831 | 62 | 184 | 9.6 | 14.8 | 0.00 | 0.00 | 0.00 | 35 | 1012.4 |
| 20260502183730 | 62 | 346 | 7.8 | 20.9 | 0.00 | 0.00 | 0.00 | 34 | 1012.4 |
| 20260502183630 | 62 | 340 | 8.7 | 20.9 | 0.00 | 0.00 | 0.00 | 35 | 1012.4 |
| 20260502183532 | 62 | 335 | 4.3 | 20.9 | 0.00 | 0.00 | 0.00 | 36 | 1012.4 |
| 20260502183430 | 62 | 315 | 6.1 | 20.9 | 0.00 | 0.00 | 0.00 | 36 | 1012.4 |
| 20260502183328 | 62 | 326 | 2.6 | 20.9 | 0.00 | 0.00 | 0.00 | 35 | 1012.4 |
| 20260502183238 | 62 | 353 | 9.6 | 20.9 | 0.00 | 0.00 | 0.00 | 34 | 1012.4 |
| 20260502183148 | 62 | 332 | 7.8 | 20.9 | 0.00 | 0.00 | 0.00 | 35 | 1012.4 |
| 20260502183027 | 62 | 347 | 7.8 | 20.9 | 0.00 | 0.00 | 0.00 | 35 | 1012.4 |
| 20260502182925 | 62 | 350 | 9.6 | 20.9 | 0.00 | 0.00 | 0.00 | 34 | 1012.4 |
| 20260502182826 | 62 | 326 | 8.7 | 18.2 | 0.00 | 0.00 | 0.00 | 36 | 1012.3 |
| 20260502182724 | 62 | 316 | 10.4 | 18.2 | 0.00 | 0.00 | 0.00 | 36 | 1012.3 |
| 20260502182643 | 62 | 328 | 12.2 | 18.2 | 0.00 | 0.00 | 0.00 | 36 | 1012.3 |
| 20260502182542 | 62 | 329 | 7.8 | 16.5 | 0.00 | 0.00 | 0.00 | 36 | 1012.3 |
| 20260502182442 | 62 | 323 | 6.1 | 16.5 | 0.00 | 0.00 | 0.00 | 38 | 1012.3 |
| 20260502182359 | 62 | 88 | 6.1 | 16.5 | 0.00 | 0.00 | 0.00 | 36 | 1012.3 |
| 20260502182257 | 62 | 333 | 8.7 | 16.5 | 0.00 | 0.00 | 0.00 | 35 | 1012.3 |
| 20260502182155 | 62 | 318 | 10.4 | 16.5 | 0.00 | 0.00 | 0.00 | 36 | 1012.3 |
| 20260502182036 | 62 | 323 | 6.1 | 13.9 | 0.00 | 0.00 | 0.00 | 35 | 1012.3 |
| 20260502181933 | 62 | 326 | 6.1 | 13.9 | 0.00 | 0.00 | 0.00 | 37 | 1012.3 |
| 20260502181852 | 62 | 330 | 4.3 | 13.9 | 0.00 | 0.00 | 0.00 | 38 | 1012.3 |
| 20260502181742 | 62 | 330 | 6.1 | 13.9 | 0.00 | 0.00 | 0.00 | 38 | 1012.3 |
| 20260502181651 | 62 | 328 | 4.3 | 13.9 | 0.00 | 0.00 | 0.00 | 36 | 1012.3 |
| 20260502181527 | 62 | 117 | 6.1 | 16.5 | 0.00 | 0.00 | 0.00 | 38 | 1012.3 |
| 20260502181427 | 62 | 332 | 4.3 | 16.5 | 0.00 | 0.00 | 0.00 | 34 | 1012.3 |
| 20260502181325 | 62 | 359 | 6.1 | 16.5 | 0.00 | 0.00 | 0.00 | 34 | 1012.4 |
| 20260502181227 | 62 | 51 | 6.1 | 16.5 | 0.00 | 0.00 | 0.00 | 36 | 1012.4 |
| 20260502181146 | 62 | 319 | 7.8 | 16.5 | 0.00 | 0.00 | 0.00 | 36 | 1012.4 |
| 20260502181104 | 62 | 333 | 5.2 | 16.5 | 0.00 | 0.00 | 0.00 | 35 | 1012.4 |
| 20260502181002 | 62 | 339 | 4.3 | 16.5 | 0.00 | 0.00 | 0.00 | 36 | 1012.4 |
| 20260502180859 | 62 | 306 | 7.0 | 16.5 | 0.00 | 0.00 | 0.00 | 36 | 1012.4 |
| 20260502180736 | 62 | 326 | 9.6 | 16.5 | 0.00 | 0.00 | 0.00 | 39 | 1012.4 |
| 20260502180639 | 62 | 320 | 7.8 | 14.8 | 0.00 | 0.00 | 0.00 | 36 | 1012.4 |
| 20260502180536 | 62 | 330 | 8.7 | 14.8 | 0.00 | 0.00 | 0.00 | 36 | 1012.4 |
| 20260502180439 | 62 | 356 | 8.7 | 14.8 | 0.00 | 0.00 | 0.00 | 36 | 1012.4 |
| 20260502180336 | 62 | 342 | 7.0 | 14.8 | 0.00 | 0.00 | 0.00 | 37 | 1012.4 |
| 20260502180234 | 62 | 347 | 9.6 | 14.8 | 0.00 | 0.00 | 0.00 | 37 | 1012.4 |
| 20260502180206 | 62 | 157 | 6.1 | 14.8 | 0.00 | 0.00 | 0.00 | 34 | 1012.4 |
| 20260502170437 | 60 | 332 | 6.1 | 12.2 | 0.00 | 0.00 | 0.00 | 40 | 1012.8 |
| 20260502170336 | 60 | 357 | 8.7 | 12.2 | 0.00 | 0.00 | 0.00 | 38 | 1012.8 |
| 20260502170234 | 60 | 296 | 6.1 | 11.3 | 0.00 | 0.00 | 0.00 | 37 | 1012.8 |
| 20260502170206 | 60 | 185 | 5.2 | 11.3 | 0.00 | 0.00 | 0.00 | 37 | 1012.8 |
| 20260502164328 | 59 | 164 | 7.0 | 12.2 | 0.00 | 0.00 | 0.00 | 39 | 1013.2 |
| 20260502164246 | 59 | 240 | 7.0 | 12.2 | 0.00 | 0.00 | 0.00 | 40 | 1013.2 |
| 20260502164143 | 59 | 360 | 7.0 | 12.2 | 0.00 | 0.00 | 0.00 | 40 | 1013.2 |
| 20260502164043 | 59 | 336 | 7.0 | 12.2 | 0.00 | 0.00 | 0.00 | 40 | 1013.2 |
| 20260502164001 | 59 | 330 | 7.8 | 12.2 | 0.00 | 0.00 | 0.00 | 42 | 1013.2 |
| 20260502163839 | 59 | 254 | 6.1 | 12.2 | 0.00 | 0.00 | 0.00 | 42 | 1013.2 |
| 20260502163737 | 59 | 319 | 2.6 | 12.2 | 0.00 | 0.00 | 0.00 | 43 | 1013.2 |
| 20260502163639 | 59 | 203 | 3.5 | 12.2 | 0.00 | 0.00 | 0.00 | 43 | 1013.2 |
| 20260502163558 | 59 | 328 | 6.1 | 12.2 | 0.00 | 0.00 | 0.00 | 41 | 1013.2 |
| 20260502163434 | 59 | 147 | 7.8 | 12.2 | 0.00 | 0.00 | 0.00 | 40 | 1013.2 |
| 20260502163332 | 59 | 335 | 3.5 | 12.2 | 0.00 | 0.00 | 0.00 | 40 | 1013.2 |
| 20260502163231 | 59 | 143 | 5.2 | 15.6 | 0.00 | 0.00 | 0.00 | 41 | 1013.2 |
| 20260502163200 | 59 | 298 | 6.1 | 15.6 | 0.00 | 0.00 | 0.00 | 39 | 1013.2 |
| 20260502163036 | 58 | 138 | 7.8 | 15.6 | 0.00 | 0.00 | 0.00 | 38 | 1013.2 |
| 20260502162935 | 58 | 193 | 7.8 | 15.6 | 0.00 | 0.00 | 0.00 | 41 | 1013.2 |
| 20260502162838 | 58 | 320 | 6.1 | 15.6 | 0.00 | 0.00 | 0.00 | 41 | 1013.2 |
| 20260502162736 | 58 | 333 | 7.0 | 15.6 | 0.00 | 0.00 | 0.00 | 41 | 1013.2 |
| 20260502162633 | 58 | 110 | 4.3 | 15.6 | 0.00 | 0.00 | 0.00 | 42 | 1013.2 |
| 20260502162534 | 58 | 110 | 3.5 | 15.6 | 0.00 | 0.00 | 0.00 | 41 | 1013.2 |
| 20260502162437 | 58 | 75 | 10.4 | 15.6 | 0.00 | 0.00 | 0.00 | 38 | 1013.2 |
| 20260502162355 | 58 | 253 | 9.6 | 15.6 | 0.00 | 0.00 | 0.00 | 38 | 1013.2 |
| 20260502162254 | 58 | 257 | 9.6 | 15.6 | 0.00 | 0.00 | 0.00 | 38 | 1013.2 |
| 20260502162134 | 58 | 189 | 4.3 | 15.6 | 0.00 | 0.00 | 0.00 | 43 | 1013.2 |
| 20260502162033 | 58 | 330 | 3.5 | 15.6 | 0.00 | 0.00 | 0.00 | 42 | 1013.2 |
| 20260502161932 | 58 | 359 | 3.5 | 15.6 | 0.00 | 0.00 | 0.00 | 40 | 1013.2 |
| 20260502161849 | 58 | 158 | 4.3 | 15.6 | 0.00 | 0.00 | 0.00 | 40 | 1013.2 |
| 20260502161728 | 57 | 353 | 8.7 | 15.6 | 0.00 | 0.00 | 0.00 | 41 | 1013.2 |
| 20260502161658 | 57 | 343 | 10.4 | 15.6 | 0.00 | 0.00 | 0.00 | 41 | 1013.2 |
| 20260502161535 | 57 | 330 | 5.2 | 13.9 | 0.00 | 0.00 | 0.00 | 46 | 1013.2 |
| 20260502161434 | 57 | 330 | 7.0 | 14.8 | 0.00 | 0.00 | 0.00 | 44 | 1013.2 |
| 20260502161336 | 57 | 329 | 7.8 | 14.8 | 0.00 | 0.00 | 0.00 | 45 | 1013.2 |
| 20260502161237 | 57 | 342 | 5.2 | 14.8 | 0.00 | 0.00 | 0.00 | 43 | 1013.2 |
| 20260502161156 | 57 | 332 | 7.8 | 14.8 | 0.00 | 0.00 | 0.00 | 47 | 1013.2 |
| 20260502161033 | 57 | 343 | 5.2 | 14.8 | 0.00 | 0.00 | 0.00 | 45 | 1013.2 |
| 20260502160932 | 57 | 349 | 5.2 | 14.8 | 0.00 | 0.00 | 0.00 | 45 | 1013.2 |
| 20260502160829 | 57 | 76 | 4.3 | 14.8 | 0.00 | 0.00 | 0.00 | 45 | 1013.2 |
| 20260502160728 | 57 | 340 | 7.8 | 14.8 | 0.00 | 0.00 | 0.00 | 45 | 1013.2 |
| 20260502160631 | 57 | 336 | 7.0 | 14.8 | 0.00 | 0.00 | 0.00 | 45 | 1013.2 |
| 20260502160530 | 57 | 13 | 7.8 | 14.8 | 0.00 | 0.00 | 0.00 | 47 | 1013.2 |
| 20260502160428 | 57 | 191 | 7.8 | 14.8 | 0.00 | 0.00 | 0.00 | 47 | 1013.2 |
| 20260502160326 | 57 | 44 | 9.6 | 14.8 | 0.00 | 0.00 | 0.00 | 47 | 1013.2 |
| 20260502160244 | 57 | 333 | 5.2 | 14.8 | 0.00 | 0.00 | 0.00 | 47 | 1013.2 |
| 20260502160214 | 57 | 335 | 5.2 | 14.8 | 0.00 | 0.00 | 0.00 | 47 | 1013.2 |
| 20260502152330 | 56 | 119 | 7.0 | 15.6 | 0.00 | 0.00 | 0.00 | 45 | 1012.8 |
| 20260502152229 | 56 | 154 | 5.2 | 15.6 | 0.00 | 0.00 | 0.00 | 44 | 1012.8 |
| 20260502152147 | 56 | 256 | 4.3 | 15.6 | 0.00 | 0.00 | 0.00 | 46 | 1012.8 |
| 20260502152028 | 56 | 90 | 3.5 | 15.6 | 0.00 | 0.00 | 0.00 | 47 | 1012.8 |
| 20260502151947 | 56 | 337 | 8.7 | 15.6 | 0.00 | 0.00 | 0.00 | 47 | 1012.8 |
| 20260502151829 | 56 | 120 | 8.7 | 15.6 | 0.00 | 0.00 | 0.00 | 46 | 1012.8 |
| 20260502151758 | 56 | 332 | 7.8 | 15.6 | 0.00 | 0.00 | 0.00 | 47 | 1012.8 |
| 20260502151647 | 56 | 176 | 10.4 | 15.6 | 0.00 | 0.00 | 0.00 | 45 | 1012.8 |
| 20260502151522 | 56 | 280 | 5.2 | 15.6 | 0.00 | 0.00 | 0.00 | 50 | 1012.8 |
| 20260502151443 | 56 | 330 | 4.3 | 15.6 | 0.00 | 0.00 | 0.00 | 47 | 1012.8 |
| 20260502151341 | 55 | 184 | 6.1 | 17.4 | 0.00 | 0.00 | 0.00 | 47 | 1012.7 |
| 20260502151240 | 55 | 332 | 4.3 | 17.4 | 0.00 | 0.00 | 0.00 | 46 | 1012.7 |
| 20260502151159 | 55 | 335 | 3.5 | 17.4 | 0.00 | 0.00 | 0.00 | 49 | 1012.7 |
| 20260502151040 | 55 | 30 | 3.5 | 17.4 | 0.00 | 0.00 | 0.00 | 50 | 1012.7 |
| 20260502151000 | 55 | 82 | 2.6 | 17.4 | 0.00 | 0.00 | 0.00 | 49 | 1012.7 |
| 20260502150838 | 55 | 161 | 6.1 | 17.4 | 0.00 | 0.00 | 0.00 | 50 | 1012.7 |
| 20260502150755 | 55 | 335 | 9.6 | 17.4 | 0.00 | 0.00 | 0.00 | 52 | 1012.7 |
| 20260502150633 | 55 | 337 | 3.5 | 17.4 | 0.00 | 0.00 | 0.00 | 50 | 1012.7 |
| 20260502150531 | 55 | 271 | 9.6 | 17.4 | 0.00 | 0.00 | 0.00 | 50 | 1012.7 |
| 20260502150428 | 55 | 332 | 6.1 | 12.2 | 0.00 | 0.00 | 0.00 | 52 | 1012.7 |
| 20260502150347 | 55 | 360 | 1.7 | 12.2 | 0.00 | 0.00 | 0.00 | 50 | 1012.7 |
| 20260502150309 | 55 | 347 | 7.0 | 12.2 | 0.00 | 0.00 | 0.00 | 50 | 1012.7 |
| 20260502150219 | 55 | 292 | 7.8 | 12.2 | 0.00 | 0.00 | 0.00 | 50 | 1012.7 |
| 20260502130742 | 48 | 251 | 7.8 | 14.8 | 0.00 | 0.00 | 0.00 | 69 | 1012.2 |
| 20260502130644 | 48 | 271 | 7.0 | 14.8 | 0.00 | 0.00 | 0.00 | 69 | 1012.2 |
| 20260502130602 | 48 | 239 | 7.0 | 14.8 | 0.00 | 0.00 | 0.00 | 68 | 1012.2 |
| 20260502130459 | 48 | 89 | 8.7 | 14.8 | 0.00 | 0.00 | 0.00 | 69 | 1012.2 |
| 20260502130337 | 48 | 199 | 6.1 | 11.3 | 0.00 | 0.00 | 0.00 | 70 | 1012.2 |
| 20260502130256 | 48 | 257 | 5.2 | 11.3 | 0.00 | 0.00 | 0.00 | 70 | 1012.2 |
| 20260502130226 | 48 | 209 | 7.0 | 11.3 | 0.00 | 0.00 | 0.00 | 70 | 1012.2 |
| 20260502123738 | 47 | 325 | 5.2 | 9.6 | 0.00 | 0.00 | 0.00 | 71 | 1012.0 |
| 20260502123636 | 47 | 110 | 5.2 | 8.7 | 0.00 | 0.00 | 0.00 | 71 | 1012.0 |
| 20260502123536 | 47 | 295 | 4.3 | 8.7 | 0.00 | 0.00 | 0.00 | 71 | 1012.0 |
| 20260502123438 | 47 | 272 | 5.2 | 9.6 | 0.00 | 0.00 | 0.00 | 71 | 1012.0 |
| 20260502123336 | 47 | 239 | 3.5 | 9.6 | 0.00 | 0.00 | 0.00 | 71 | 1012.0 |
| 20260502123235 | 47 | 88 | 4.3 | 9.6 | 0.00 | 0.00 | 0.00 | 71 | 1012.0 |
| 20260502123204 | 47 | 323 | 5.2 | 9.6 | 0.00 | 0.00 | 0.00 | 71 | 1012.0 |
| 20260502123041 | 47 | 258 | 3.5 | 9.6 | 0.00 | 0.00 | 0.00 | 71 | 1012.0 |
| 20260502122939 | 47 | 264 | 4.3 | 9.6 | 0.00 | 0.00 | 0.00 | 71 | 1012.0 |
| 20260502122840 | 47 | 215 | 4.3 | 9.6 | 0.00 | 0.00 | 0.00 | 71 | 1011.8 |
| 20260502122759 | 47 | 335 | 3.5 | 9.6 | 0.00 | 0.00 | 0.00 | 70 | 1011.8 |
| 20260502122640 | 47 | 75 | 6.1 | 9.6 | 0.00 | 0.00 | 0.00 | 70 | 1011.8 |
| 20260502122538 | 47 | 92 | 8.7 | 9.6 | 0.00 | 0.00 | 0.00 | 71 | 1011.8 |
| 20260502122457 | 47 | 134 | 6.1 | 9.6 | 0.00 | 0.00 | 0.00 | 71 | 1011.8 |
| 20260502122353 | 47 | 96 | 3.5 | 8.7 | 0.00 | 0.00 | 0.00 | 71 | 1011.8 |
| 20260502122231 | 47 | 147 | 3.5 | 8.7 | 0.00 | 0.00 | 0.00 | 71 | 1011.8 |
| 20260502122129 | 47 | 332 | 2.6 | 8.7 | 0.00 | 0.00 | 0.00 | 72 | 1011.8 |
| 20260502122048 | 47 | 192 | 0.9 | 8.7 | 0.00 | 0.00 | 0.00 | 72 | 1011.8 |
| 20260502121945 | 47 | 329 | 2.6 | 8.7 | 0.00 | 0.00 | 0.00 | 72 | 1011.8 |
| 20260502121902 | 47 | 342 | 3.5 | 8.7 | 0.00 | 0.00 | 0.00 | 72 | 1011.8 |
| 20260502121724 | 47 | 330 | 4.3 | 8.7 | 0.00 | 0.00 | 0.00 | 72 | 1011.8 |
| 20260502121654 | 47 | 182 | 5.2 | 8.7 | 0.00 | 0.00 | 0.00 | 72 | 1011.8 |
| 20260502121531 | 47 | 258 | 2.6 | 11.3 | 0.00 | 0.00 | 0.00 | 72 | 1011.8 |
| 20260502121448 | 47 | 328 | 2.6 | 11.3 | 0.00 | 0.00 | 0.00 | 72 | 1011.8 |
| 20260502121347 | 47 | 335 | 2.6 | 11.3 | 0.00 | 0.00 | 0.00 | 71 | 1011.5 |
| 20260502121304 | 47 | 256 | 1.7 | 11.3 | 0.00 | 0.00 | 0.00 | 71 | 1011.5 |
| 20260502121142 | 47 | 110 | 2.6 | 11.3 | 0.00 | 0.00 | 0.00 | 71 | 1011.5 |
| 20260502121040 | 47 | 330 | 4.3 | 11.3 | 0.00 | 0.00 | 0.00 | 70 | 1011.5 |
| 20260502120943 | 47 | 119 | 4.3 | 11.3 | 0.00 | 0.00 | 0.00 | 71 | 1011.5 |
| 20260502120901 | 47 | 172 | 3.5 | 11.3 | 0.00 | 0.00 | 0.00 | 70 | 1011.5 |
| 20260502120738 | 47 | 210 | 6.1 | 11.3 | 0.00 | 0.00 | 0.00 | 70 | 1011.5 |
| 20260502120636 | 47 | 274 | 3.5 | 8.7 | 0.00 | 0.00 | 0.00 | 70 | 1011.5 |
| 20260502120535 | 47 | 316 | 4.3 | 8.7 | 0.00 | 0.00 | 0.00 | 71 | 1011.5 |
| 20260502120432 | 47 | 328 | 4.3 | 8.7 | 0.00 | 0.00 | 0.00 | 71 | 1011.5 |
| 20260502120352 | 47 | 123 | 7.0 | 8.7 | 0.00 | 0.00 | 0.00 | 71 | 1011.5 |
| 20260502120240 | 47 | 191 | 6.1 | 7.8 | 0.00 | 0.00 | 0.00 | 71 | 1011.5 |
| 20260502120153 | 47 | 319 | 2.6 | 7.8 | 0.00 | 0.00 | 0.00 | 71 | 1011.5 |
| 20260502115929 | 47 | 227 | 3.5 | 7.8 | 0.00 | 0.00 | 0.00 | 71 | 1011.5 |
| 20260502115828 | 47 | 330 | 4.3 | 7.8 | 0.00 | 0.00 | 0.00 | 71 | 1011.5 |
| 20260502115745 | 47 | 328 | 3.5 | 8.7 | 0.00 | 0.00 | 0.00 | 71 | 1011.5 |
| 20260502115643 | 47 | 172 | 3.5 | 8.7 | 0.00 | 0.00 | 0.00 | 71 | 1011.5 |
| 20260502115601 | 47 | 186 | 3.5 | 8.7 | 0.00 | 0.00 | 0.00 | 70 | 1011.5 |
| 20260502115458 | 47 | 332 | 3.5 | 8.7 | 0.00 | 0.00 | 0.00 | 70 | 1011.5 |
| 20260502115335 | 47 | 289 | 3.5 | 8.7 | 0.00 | 0.00 | 0.00 | 70 | 1011.5 |
| 20260502115236 | 47 | 75 | 2.6 | 8.7 | 0.00 | 0.00 | 0.00 | 71 | 1011.5 |
| 20260502115135 | 47 | 116 | 2.6 | 9.6 | 0.00 | 0.00 | 0.00 | 70 | 1011.5 |
| 20260502115033 | 47 | 192 | 4.3 | 9.6 | 0.00 | 0.00 | 0.00 | 70 | 1011.5 |
| 20260502114931 | 47 | 90 | 4.3 | 9.6 | 0.00 | 0.00 | 0.00 | 70 | 1011.5 |
| 20260502114832 | 47 | 353 | 1.7 | 9.6 | 0.00 | 0.00 | 0.00 | 70 | 1011.5 |
| 20260502114749 | 47 | 239 | 2.6 | 9.6 | 0.00 | 0.00 | 0.00 | 70 | 1011.5 |
| 20260502114657 | 47 | 202 | 2.6 | 9.6 | 0.00 | 0.00 | 0.00 | 70 | 1011.5 |
| 20260502114539 | 47 | 215 | 2.6 | 9.6 | 0.00 | 0.00 | 0.00 | 69 | 1011.5 |
| 20260502114457 | 47 | 127 | 4.3 | 9.6 | 0.00 | 0.00 | 0.00 | 69 | 1011.5 |
| 20260502114335 | 47 | 330 | 6.1 | 9.6 | 0.00 | 0.00 | 0.00 | 70 | 1011.4 |
| 20260502114234 | 47 | 329 | 3.5 | 8.7 | 0.00 | 0.00 | 0.00 | 69 | 1011.4 |
| 20260502114133 | 47 | 157 | 3.5 | 8.7 | 0.00 | 0.00 | 0.00 | 69 | 1011.4 |
| 20260502114031 | 47 | 209 | 1.7 | 8.7 | 0.00 | 0.00 | 0.00 | 69 | 1011.4 |
| 20260502113928 | 47 | 61 | 5.2 | 8.7 | 0.00 | 0.00 | 0.00 | 69 | 1011.4 |
| 20260502113847 | 47 | 172 | 5.2 | 8.7 | 0.00 | 0.00 | 0.00 | 69 | 1011.4 |
| 20260502113728 | 47 | 292 | 2.6 | 8.7 | 0.00 | 0.00 | 0.00 | 69 | 1011.4 |
| 20260502113631 | 47 | 234 | 3.5 | 8.7 | 0.00 | 0.00 | 0.00 | 69 | 1011.4 |
| 20260502113528 | 47 | 73 | 5.2 | 8.7 | 0.00 | 0.00 | 0.00 | 69 | 1011.4 |
| 20260502113446 | 47 | 184 | 5.2 | 8.7 | 0.00 | 0.00 | 0.00 | 68 | 1011.4 |
| 20260502113404 | 47 | 328 | 4.3 | 7.0 | 0.00 | 0.00 | 0.00 | 68 | 1011.4 |
| 20260502113242 | 47 | 294 | 4.3 | 7.0 | 0.00 | 0.00 | 0.00 | 68 | 1011.4 |
| 20260502113151 | 47 | 133 | 3.5 | 7.0 | 0.00 | 0.00 | 0.00 | 68 | 1011.4 |
| 20260502113028 | 47 | 330 | 3.5 | 7.0 | 0.00 | 0.00 | 0.00 | 68 | 1011.4 |
| 20260502112931 | 47 | 123 | 2.6 | 7.0 | 0.00 | 0.00 | 0.00 | 68 | 1011.4 |
| 20260502112830 | 47 | 199 | 4.3 | 7.0 | 0.00 | 0.00 | 0.00 | 68 | 1011.3 |
| 20260502112728 | 47 | 323 | 2.6 | 7.0 | 0.00 | 0.00 | 0.00 | 68 | 1011.3 |
| 20260502112626 | 47 | 308 | 4.3 | 7.0 | 0.00 | 0.00 | 0.00 | 68 | 1011.3 |
| 20260502112543 | 47 | 295 | 4.3 | 7.0 | 0.00 | 0.00 | 0.00 | 68 | 1011.3 |
| 20260502112441 | 47 | 109 | 4.3 | 7.0 | 0.00 | 0.00 | 0.00 | 68 | 1011.3 |
| 20260502112400 | 47 | 144 | 5.2 | 7.0 | 0.00 | 0.00 | 0.00 | 68 | 1011.3 |
| 20260502112237 | 47 | 333 | 4.3 | 7.0 | 0.00 | 0.00 | 0.00 | 68 | 1011.3 |
| 20260502112141 | 47 | 244 | 3.5 | 7.0 | 0.00 | 0.00 | 0.00 | 68 | 1011.3 |
| 20260502112036 | 47 | 241 | 4.3 | 7.0 | 0.00 | 0.00 | 0.00 | 68 | 1011.3 |
| 20260502111935 | 47 | 267 | 0.9 | 6.1 | 0.00 | 0.00 | 0.00 | 69 | 1011.3 |
| 20260502111833 | 47 | 311 | 3.5 | 6.1 | 0.00 | 0.00 | 0.00 | 69 | 1011.3 |
| 20260502111753 | 47 | 281 | 2.6 | 6.1 | 0.00 | 0.00 | 0.00 | 68 | 1011.3 |
| 20260502111722 | 47 | 130 | 1.7 | 6.1 | 0.00 | 0.00 | 0.00 | 68 | 1011.3 |
| 20260502111538 | 47 | 114 | 0.9 | 6.1 | 0.00 | 0.00 | 0.00 | 68 | 1011.3 |
| 20260502111437 | 47 | 42 | 0.9 | 6.1 | 0.00 | 0.00 | 0.00 | 68 | 1011.3 |
| 20260502111341 | 47 | 133 | 2.6 | 6.1 | 0.00 | 0.00 | 0.00 | 67 | 1010.9 |
| 20260502111239 | 47 | 330 | 2.6 | 6.1 | 0.00 | 0.00 | 0.00 | 67 | 1010.9 |
| 20260502111138 | 47 | 158 | 4.3 | 6.1 | 0.00 | 0.00 | 0.00 | 67 | 1010.9 |
| 20260502111037 | 47 | 191 | 3.5 | 6.1 | 0.00 | 0.00 | 0.00 | 68 | 1010.9 |
| 20260502110956 | 47 | 325 | 4.3 | 6.1 | 0.00 | 0.00 | 0.00 | 68 | 1010.9 |
| 20260502110833 | 47 | 230 | 2.6 | 6.1 | 0.00 | 0.00 | 0.00 | 67 | 1010.9 |
| 20260502110731 | 47 | 309 | 4.3 | 6.1 | 0.00 | 0.00 | 0.00 | 67 | 1010.9 |
| 20260502110633 | 47 | 254 | 1.7 | 6.1 | 0.00 | 0.00 | 0.00 | 67 | 1010.9 |
| 20260502110532 | 47 | 325 | 2.6 | 6.1 | 0.00 | 0.00 | 0.00 | 67 | 1010.9 |
| 20260502110429 | 48 | 301 | 4.3 | 6.1 | 0.00 | 0.00 | 0.00 | 66 | 1010.9 |
| 20260502110349 | 48 | 86 | 0.9 | 6.1 | 0.00 | 0.00 | 0.00 | 66 | 1010.9 |
| 20260502110246 | 48 | 191 | 2.6 | 6.1 | 0.00 | 0.00 | 0.00 | 66 | 1010.9 |
| 20260502110218 | 48 | 208 | 4.3 | 6.1 | 0.00 | 0.00 | 0.00 | 66 | 1010.9 |
| 20260502110054 | 48 | 100 | 4.3 | 6.1 | 0.00 | 0.00 | 0.00 | 66 | 1010.9 |
| 20260502105931 | 48 | 299 | 4.3 | 6.1 | 0.00 | 0.00 | 0.00 | 66 | 1010.9 |
| 20260502105851 | 48 | 79 | 1.7 | 6.1 | 0.00 | 0.00 | 0.00 | 66 | 1010.6 |
| 20260502105753 | 48 | 329 | 3.5 | 6.1 | 0.00 | 0.00 | 0.00 | 65 | 1010.6 |
| 20260502105630 | 48 | 299 | 5.2 | 6.1 | 0.00 | 0.00 | 0.00 | 65 | 1010.6 |
| 20260502105528 | 48 | 333 | 4.3 | 6.1 | 0.00 | 0.00 | 0.00 | 65 | 1010.6 |
| 20260502105426 | 48 | 315 | 0.9 | 6.1 | 0.00 | 0.00 | 0.00 | 65 | 1010.6 |
| 20260502105324 | 48 | 126 | 2.6 | 6.1 | 0.00 | 0.00 | 0.00 | 65 | 1010.6 |
| 20260502105243 | 48 | 244 | 3.5 | 7.0 | 0.00 | 0.00 | 0.00 | 65 | 1010.6 |
| 20260502105141 | 48 | 248 | 1.7 | 7.0 | 0.00 | 0.00 | 0.00 | 66 | 1010.6 |
| 20260502105043 | 48 | 304 | 1.7 | 11.3 | 0.00 | 0.00 | 0.00 | 65 | 1010.6 |
| 20260502104942 | 48 | 308 | 3.5 | 11.3 | 0.00 | 0.00 | 0.00 | 65 | 1010.6 |
| 20260502104840 | 48 | 349 | 4.3 | 11.3 | 0.00 | 0.00 | 0.00 | 65 | 1010.6 |
| 20260502104739 | 48 | 318 | 3.5 | 11.3 | 0.00 | 0.00 | 0.00 | 65 | 1010.6 |
| 20260502104709 | 48 | 131 | 2.6 | 11.3 | 0.00 | 0.00 | 0.00 | 65 | 1010.6 |
| 20260502104524 | 48 | 137 | 3.5 | 11.3 | 0.00 | 0.00 | 0.00 | 65 | 1010.6 |
| 20260502104443 | 48 | 174 | 4.3 | 11.3 | 0.00 | 0.00 | 0.00 | 65 | 1010.6 |
| 20260502104340 | 48 | 299 | 5.2 | 11.3 | 0.00 | 0.00 | 0.00 | 65 | 1010.6 |
| 20260502104300 | 48 | 95 | 6.1 | 11.3 | 0.00 | 0.00 | 0.00 | 64 | 1010.6 |
| 20260502104137 | 48 | 234 | 8.7 | 11.3 | 0.00 | 0.00 | 0.00 | 65 | 1010.6 |
| 20260502104054 | 48 | 332 | 6.1 | 11.3 | 0.00 | 0.00 | 0.00 | 65 | 1010.6 |
| 20260502103935 | 48 | 254 | 6.1 | 11.3 | 0.00 | 0.00 | 0.00 | 65 | 1010.6 |
| 20260502103833 | 48 | 152 | 7.8 | 11.3 | 0.00 | 0.00 | 0.00 | 65 | 1010.6 |
| 20260502103731 | 48 | 244 | 8.7 | 11.3 | 0.00 | 0.00 | 0.00 | 65 | 1010.6 |
| 20260502103630 | 48 | 138 | 6.1 | 10.4 | 0.00 | 0.00 | 0.00 | 65 | 1010.6 |
| 20260502103533 | 48 | 278 | 3.5 | 10.4 | 0.00 | 0.00 | 0.00 | 65 | 1010.6 |
| 20260502103431 | 48 | 325 | 5.2 | 10.4 | 0.00 | 0.00 | 0.00 | 65 | 1010.6 |
| 20260502103330 | 48 | 113 | 4.3 | 10.4 | 0.00 | 0.00 | 0.00 | 65 | 1010.6 |
| 20260502103239 | 48 | 280 | 7.0 | 10.4 | 0.00 | 0.00 | 0.00 | 65 | 1010.6 |
| 20260502103151 | 48 | 296 | 6.1 | 10.4 | 0.00 | 0.00 | 0.00 | 65 | 1010.6 |
| 20260502103027 | 48 | 296 | 7.0 | 10.4 | 0.00 | 0.00 | 0.00 | 66 | 1010.6 |
| 20260502102945 | 48 | 137 | 6.1 | 10.4 | 0.00 | 0.00 | 0.00 | 65 | 1010.6 |
| 20260502102842 | 48 | 270 | 5.2 | 10.4 | 0.00 | 0.00 | 0.00 | 65 | 1010.6 |
| 20260502102741 | 48 | 278 | 5.2 | 10.4 | 0.00 | 0.00 | 0.00 | 65 | 1010.6 |
| 20260502102703 | 48 | 296 | 5.2 | 10.4 | 0.00 | 0.00 | 0.00 | 65 | 1010.6 |
| 20260502102541 | 48 | 192 | 5.2 | 10.4 | 0.00 | 0.00 | 0.00 | 63 | 1010.6 |
| 20260502102459 | 48 | 309 | 5.2 | 10.4 | 0.00 | 0.00 | 0.00 | 63 | 1010.6 |
| 20260502102337 | 48 | 332 | 5.2 | 10.4 | 0.00 | 0.00 | 0.00 | 63 | 1010.6 |
| 20260502102236 | 48 | 202 | 6.1 | 10.4 | 0.00 | 0.00 | 0.00 | 63 | 1010.6 |
| 20260502102133 | 48 | 52 | 7.8 | 13.9 | 0.00 | 0.00 | 0.00 | 63 | 1010.6 |
| 20260502102032 | 48 | 333 | 4.3 | 13.9 | 0.00 | 0.00 | 0.00 | 64 | 1010.6 |
| 20260502101935 | 48 | 305 | 5.2 | 13.9 | 0.00 | 0.00 | 0.00 | 64 | 1010.6 |
| 20260502101834 | 48 | 147 | 4.3 | 13.9 | 0.00 | 0.00 | 0.00 | 64 | 1010.6 |
| 20260502101754 | 48 | 158 | 3.5 | 13.9 | 0.00 | 0.00 | 0.00 | 64 | 1010.6 |
| 20260502101540 | 48 | 267 | 7.0 | 13.9 | 0.00 | 0.00 | 0.00 | 62 | 1010.6 |
| 20260502101438 | 48 | 277 | 7.0 | 13.9 | 0.00 | 0.00 | 0.00 | 63 | 1010.6 |
| 20260502101336 | 48 | 236 | 7.8 | 13.9 | 0.00 | 0.00 | 0.00 | 64 | 1010.1 |
| 20260502101235 | 48 | 318 | 3.5 | 11.3 | 0.00 | 0.00 | 0.00 | 64 | 1010.1 |
| 20260502101154 | 48 | 158 | 3.5 | 11.3 | 0.00 | 0.00 | 0.00 | 62 | 1010.1 |
| 20260502101034 | 48 | 340 | 7.8 | 11.3 | 0.00 | 0.00 | 0.00 | 63 | 1010.1 |
| 20260502100954 | 48 | 72 | 6.1 | 11.3 | 0.00 | 0.00 | 0.00 | 62 | 1010.1 |
| 20260502100853 | 48 | 234 | 6.1 | 11.3 | 0.00 | 0.00 | 0.00 | 62 | 1010.1 |
| 20260502100730 | 48 | 275 | 7.0 | 11.3 | 0.00 | 0.00 | 0.00 | 62 | 1010.1 |
| 20260502100631 | 48 | 284 | 7.0 | 10.4 | 0.00 | 0.00 | 0.00 | 63 | 1010.1 |
| 20260502100529 | 48 | 222 | 6.1 | 12.2 | 0.00 | 0.00 | 0.00 | 62 | 1010.1 |
| 20260502100448 | 49 | 205 | 8.7 | 13.9 | 0.00 | 0.00 | 0.00 | 63 | 1010.1 |
| 20260502100326 | 49 | 295 | 1.7 | 13.9 | 0.00 | 0.00 | 0.00 | 62 | 1010.1 |
| 20260502100245 | 49 | 198 | 5.2 | 13.9 | 0.00 | 0.00 | 0.00 | 62 | 1010.1 |
| 20260502100218 | 49 | 264 | 3.5 | 13.9 | 0.00 | 0.00 | 0.00 | 63 | 1010.1 |
| 20260502091438 | 49 | 202 | 11.3 | 13.9 | 0.00 | 0.00 | 0.00 | 61 | 1010.4 |
| 20260502091339 | 49 | 264 | 7.8 | 13.9 | 0.00 | 0.00 | 0.00 | 60 | 1010.5 |
| 20260502091242 | 49 | 329 | 8.7 | 14.8 | 0.00 | 0.00 | 0.00 | 60 | 1010.5 |
| 20260502091142 | 49 | 294 | 7.0 | 14.8 | 0.00 | 0.00 | 0.00 | 60 | 1010.5 |
| 20260502091100 | 49 | 85 | 8.7 | 14.8 | 0.00 | 0.00 | 0.00 | 59 | 1010.5 |
| 20260502090939 | 49 | 336 | 10.4 | 14.8 | 0.00 | 0.00 | 0.00 | 59 | 1010.5 |
| 20260502090837 | 49 | 171 | 10.4 | 14.8 | 0.00 | 0.00 | 0.00 | 60 | 1010.5 |
| 20260502090735 | 49 | 318 | 9.6 | 14.8 | 0.00 | 0.00 | 0.00 | 60 | 1010.5 |
| 20260502090633 | 49 | 260 | 7.0 | 14.8 | 0.00 | 0.00 | 0.00 | 61 | 1010.5 |
| 20260502090535 | 49 | 261 | 5.2 | 14.8 | 0.00 | 0.00 | 0.00 | 60 | 1010.5 |
| 20260502090434 | 49 | 217 | 7.8 | 14.8 | 0.00 | 0.00 | 0.00 | 59 | 1010.5 |
| 20260502090331 | 49 | 329 | 10.4 | 14.8 | 0.00 | 0.00 | 0.00 | 59 | 1010.5 |
| 20260502090242 | 49 | 215 | 9.6 | 14.8 | 0.00 | 0.00 | 0.00 | 58 | 1010.5 |
| 20260502090151 | 49 | 237 | 8.7 | 14.8 | 0.00 | 0.00 | 0.00 | 59 | 1010.5 |
| 20260502071444 | 51 | 329 | 7.0 | 16.5 | 0.00 | 0.00 | 0.00 | 56 | 1010.6 |
| 20260502071341 | 51 | 304 | 6.1 | 16.5 | 0.00 | 0.00 | 0.00 | 57 | 1011.4 |
| 20260502071238 | 51 | 285 | 7.8 | 16.5 | 0.00 | 0.00 | 0.00 | 56 | 1011.4 |
| 20260502071141 | 51 | 199 | 11.3 | 16.5 | 0.00 | 0.00 | 0.00 | 56 | 1011.4 |
| 20260502071040 | 51 | 299 | 7.8 | 14.8 | 0.00 | 0.00 | 0.00 | 56 | 1011.4 |
| 20260502070939 | 51 | 329 | 7.0 | 14.8 | 0.00 | 0.00 | 0.00 | 56 | 1011.4 |
| 20260502070837 | 51 | 220 | 7.0 | 14.8 | 0.00 | 0.00 | 0.00 | 56 | 1011.4 |
| 20260502070735 | 51 | 200 | 7.8 | 14.8 | 0.00 | 0.00 | 0.00 | 56 | 1011.4 |
| 20260502070633 | 51 | 305 | 7.8 | 16.5 | 0.00 | 0.00 | 0.00 | 55 | 1011.4 |
| 20260502070552 | 51 | 186 | 9.6 | 16.5 | 0.00 | 0.00 | 0.00 | 54 | 1011.4 |
| 20260502070432 | 51 | 328 | 11.3 | 16.5 | 0.00 | 0.00 | 0.00 | 54 | 1011.4 |
| 20260502070331 | 51 | 155 | 9.6 | 16.5 | 0.00 | 0.00 | 0.00 | 54 | 1011.4 |
| 20260502070250 | 51 | 237 | 8.7 | 16.5 | 0.00 | 0.00 | 0.00 | 54 | 1011.4 |
| 20260502070200 | 51 | 289 | 7.8 | 16.5 | 0.00 | 0.00 | 0.00 | 55 | 1011.4 |
| 20260502070040 | 51 | 319 | 8.7 | 16.5 | 0.00 | 0.00 | 0.00 | 55 | 1011.4 |
| 20260502065938 | 51 | 319 | 8.7 | 16.5 | 0.00 | 0.00 | 0.00 | 55 | 1011.4 |
| 20260502065837 | 51 | 227 | 10.4 | 16.5 | 0.00 | 0.00 | 0.00 | 55 | 1011.3 |
| 20260502065739 | 51 | 284 | 9.6 | 14.8 | 0.00 | 0.00 | 0.00 | 55 | 1011.3 |
| 20260502065656 | 51 | 301 | 9.6 | 14.8 | 0.00 | 0.00 | 0.00 | 54 | 1011.3 |
| 20260502065533 | 51 | 219 | 7.8 | 14.8 | 0.00 | 0.00 | 0.00 | 54 | 1011.3 |
| 20260502065431 | 51 | 311 | 6.1 | 14.8 | 0.00 | 0.00 | 0.00 | 55 | 1011.3 |
| 20260502065329 | 51 | 174 | 4.3 | 14.8 | 0.00 | 0.00 | 0.00 | 54 | 1011.3 |
| 20260502065228 | 51 | 332 | 10.4 | 14.8 | 0.00 | 0.00 | 0.00 | 54 | 1011.3 |
| 20260502065150 | 51 | 73 | 10.4 | 14.8 | 0.00 | 0.00 | 0.00 | 53 | 1011.3 |
| 20260502065047 | 51 | 315 | 9.6 | 16.5 | 0.00 | 0.00 | 0.00 | 54 | 1011.3 |
| 20260502064929 | 51 | 305 | 7.8 | 16.5 | 0.00 | 0.00 | 0.00 | 53 | 1011.3 |
| 20260502064826 | 51 | 209 | 7.8 | 16.5 | 0.00 | 0.00 | 0.00 | 54 | 1011.3 |
| 20260502064735 | 51 | 128 | 9.6 | 16.5 | 0.00 | 0.00 | 0.00 | 53 | 1011.3 |
| 20260502064645 | 51 | 308 | 8.7 | 16.5 | 0.00 | 0.00 | 0.00 | 54 | 1011.3 |
| 20260502064542 | 51 | 168 | 9.6 | 16.5 | 0.00 | 0.00 | 0.00 | 54 | 1011.3 |
| 20260502064441 | 51 | 339 | 8.7 | 16.5 | 0.00 | 0.00 | 0.00 | 55 | 1011.3 |
| 20260502064338 | 51 | 54 | 4.3 | 16.5 | 0.00 | 0.00 | 0.00 | 54 | 1011.4 |
| 20260502064235 | 51 | 308 | 10.4 | 16.5 | 0.00 | 0.00 | 0.00 | 55 | 1011.4 |
| 20260502064140 | 51 | 309 | 8.7 | 16.5 | 0.00 | 0.00 | 0.00 | 55 | 1011.4 |
| 20260502064039 | 51 | 309 | 8.7 | 16.5 | 0.00 | 0.00 | 0.00 | 55 | 1011.4 |
| 20260502063937 | 51 | 282 | 9.6 | 15.6 | 0.00 | 0.00 | 0.00 | 55 | 1011.4 |
| 20260502063834 | 51 | 292 | 7.0 | 16.5 | 0.00 | 0.00 | 0.00 | 54 | 1011.4 |
| 20260502063734 | 51 | 332 | 7.0 | 16.5 | 0.00 | 0.00 | 0.00 | 53 | 1011.4 |
| 20260502063652 | 51 | 330 | 11.3 | 16.5 | 0.00 | 0.00 | 0.00 | 54 | 1011.4 |
| 20260502063530 | 51 | 253 | 10.4 | 16.5 | 0.00 | 0.00 | 0.00 | 54 | 1011.4 |
| 20260502063432 | 51 | 200 | 10.4 | 16.5 | 0.00 | 0.00 | 0.00 | 53 | 1011.4 |
| 20260502063349 | 51 | 313 | 7.0 | 16.5 | 0.00 | 0.00 | 0.00 | 54 | 1011.4 |
| 20260502063228 | 51 | 184 | 8.7 | 16.5 | 0.00 | 0.00 | 0.00 | 53 | 1011.4 |
| 20260502063158 | 51 | 289 | 7.8 | 16.5 | 0.00 | 0.00 | 0.00 | 52 | 1011.4 |
| 20260502063035 | 51 | 247 | 10.4 | 16.5 | 0.00 | 0.00 | 0.00 | 52 | 1011.4 |
| 20260502062932 | 51 | 271 | 9.6 | 16.5 | 0.00 | 0.00 | 0.00 | 52 | 1011.4 |
| 20260502062830 | 51 | 209 | 7.8 | 14.8 | 0.00 | 0.00 | 0.00 | 52 | 1011.6 |
| 20260502062734 | 51 | 328 | 8.7 | 14.8 | 0.00 | 0.00 | 0.00 | 53 | 1011.6 |
| 20260502062633 | 51 | 243 | 8.7 | 17.4 | 0.00 | 0.00 | 0.00 | 53 | 1011.6 |
| 20260502062530 | 51 | 246 | 10.4 | 17.4 | 0.00 | 0.00 | 0.00 | 53 | 1011.6 |
| 20260502062448 | 51 | 274 | 7.0 | 17.4 | 0.00 | 0.00 | 0.00 | 53 | 1011.6 |
| 20260502062328 | 51 | 250 | 7.8 | 17.4 | 0.00 | 0.00 | 0.00 | 52 | 1011.6 |
| 20260502062225 | 51 | 330 | 9.6 | 17.4 | 0.00 | 0.00 | 0.00 | 52 | 1011.6 |
| 20260502062146 | 51 | 127 | 10.4 | 17.4 | 0.00 | 0.00 | 0.00 | 52 | 1011.6 |
| 20260502062104 | 51 | 359 | 11.3 | 17.4 | 0.00 | 0.00 | 0.00 | 51 | 1011.6 |
| 20260502061940 | 52 | 143 | 11.3 | 17.4 | 0.00 | 0.00 | 0.00 | 51 | 1011.6 |
| 20260502061858 | 52 | 232 | 12.2 | 17.4 | 0.00 | 0.00 | 0.00 | 51 | 1011.6 |
| 20260502061739 | 52 | 265 | 13.9 | 17.4 | 0.00 | 0.00 | 0.00 | 52 | 1011.6 |
| 20260502061710 | 52 | 246 | 11.3 | 16.5 | 0.00 | 0.00 | 0.00 | 52 | 1011.6 |
| 20260502061526 | 52 | 181 | 7.8 | 15.6 | 0.00 | 0.00 | 0.00 | 51 | 1011.6 |
| 20260502061423 | 52 | 330 | 7.8 | 15.6 | 0.00 | 0.00 | 0.00 | 51 | 1011.6 |
| 20260502061326 | 52 | 199 | 11.3 | 15.6 | 0.00 | 0.00 | 0.00 | 51 | 1011.4 |
| 20260502061243 | 52 | 167 | 7.0 | 14.8 | 0.00 | 0.00 | 0.00 | 52 | 1011.4 |
| 20260502061202 | 52 | 73 | 6.1 | 14.8 | 0.00 | 0.00 | 0.00 | 52 | 1011.4 |
| 20260502061042 | 52 | 136 | 7.0 | 14.8 | 0.00 | 0.00 | 0.00 | 50 | 1011.4 |
| 20260502060943 | 52 | 270 | 7.0 | 16.5 | 0.00 | 0.00 | 0.00 | 52 | 1011.4 |
| 20260502060842 | 52 | 175 | 9.6 | 16.5 | 0.00 | 0.00 | 0.00 | 50 | 1011.4 |
| 20260502060740 | 52 | 244 | 11.3 | 16.5 | 0.00 | 0.00 | 0.00 | 51 | 1011.4 |
| 20260502060639 | 52 | 287 | 7.8 | 17.4 | 0.00 | 0.00 | 0.00 | 51 | 1011.4 |
| 20260502060537 | 52 | 329 | 8.7 | 17.4 | 0.00 | 0.00 | 0.00 | 52 | 1011.4 |
| 20260502060456 | 52 | 232 | 10.4 | 17.4 | 0.00 | 0.00 | 0.00 | 51 | 1011.4 |
| 20260502060333 | 52 | 270 | 10.4 | 17.4 | 0.00 | 0.00 | 0.00 | 50 | 1011.4 |
| 20260502060304 | 52 | 109 | 10.4 | 17.4 | 0.00 | 0.00 | 0.00 | 50 | 1011.4 |
| 20260502060156 | 52 | 289 | 11.3 | 17.4 | 0.00 | 0.00 | 0.00 | 50 | 1011.4 |
| 20260502060036 | 52 | 224 | 7.0 | 17.4 | 0.00 | 0.00 | 0.00 | 50 | 1011.4 |
| 20260502055934 | 52 | 253 | 7.0 | 17.4 | 0.00 | 0.00 | 0.00 | 50 | 1011.4 |
| 20260502055851 | 52 | 244 | 7.8 | 17.4 | 0.00 | 0.00 | 0.00 | 50 | 1011.2 |
| 20260502055729 | 52 | 330 | 10.4 | 17.4 | 0.00 | 0.00 | 0.00 | 50 | 1011.2 |
| 20260502055628 | 52 | 301 | 6.1 | 15.6 | 0.00 | 0.00 | 0.00 | 50 | 1011.2 |
| 20260502055547 | 52 | 333 | 8.7 | 15.6 | 0.00 | 0.00 | 0.00 | 49 | 1011.2 |
| 20260502055447 | 52 | 274 | 10.4 | 15.6 | 0.00 | 0.00 | 0.00 | 49 | 1011.2 |
| 20260502055328 | 52 | 234 | 11.3 | 15.6 | 0.00 | 0.00 | 0.00 | 50 | 1011.2 |
| 20260502055227 | 52 | 312 | 8.7 | 15.6 | 0.00 | 0.00 | 0.00 | 51 | 1011.2 |
| 20260502055127 | 52 | 178 | 9.6 | 15.6 | 0.00 | 0.00 | 0.00 | 50 | 1011.2 |
| 20260502055025 | 52 | 216 | 9.6 | 15.6 | 0.00 | 0.00 | 0.00 | 50 | 1011.2 |
| 20260502054924 | 52 | 49 | 8.7 | 15.6 | 0.00 | 0.00 | 0.00 | 51 | 1011.2 |
| 20260502054823 | 52 | 185 | 6.1 | 19.1 | 0.00 | 0.00 | 0.00 | 51 | 1011.2 |
| 20260502054735 | 52 | 165 | 4.3 | 19.1 | 0.00 | 0.00 | 0.00 | 51 | 1011.2 |
| 20260502054645 | 52 | 274 | 10.4 | 19.1 | 0.00 | 0.00 | 0.00 | 50 | 1011.2 |
| 20260502054526 | 52 | 319 | 9.6 | 19.1 | 0.00 | 0.00 | 0.00 | 50 | 1011.2 |
| 20260502054444 | 52 | 298 | 7.8 | 19.1 | 0.00 | 0.00 | 0.00 | 50 | 1011.2 |
| 20260502054342 | 52 | 313 | 10.4 | 19.1 | 0.00 | 0.00 | 0.00 | 50 | 1011.1 |
| 20260502054242 | 52 | 243 | 9.6 | 19.1 | 0.00 | 0.00 | 0.00 | 50 | 1011.1 |
| 20260502054200 | 52 | 320 | 7.8 | 19.1 | 0.00 | 0.00 | 0.00 | 51 | 1011.1 |
| 20260502054038 | 52 | 229 | 10.4 | 19.1 | 0.00 | 0.00 | 0.00 | 50 | 1011.1 |
| 20260502053936 | 52 | 281 | 8.7 | 19.1 | 0.00 | 0.00 | 0.00 | 50 | 1011.1 |
| 20260502053837 | 52 | 319 | 8.7 | 19.1 | 0.00 | 0.00 | 0.00 | 50 | 1011.1 |
| 20260502053756 | 52 | 305 | 10.4 | 19.1 | 0.00 | 0.00 | 0.00 | 49 | 1011.1 |
| 20260502053633 | 52 | 226 | 13.9 | 19.1 | 0.00 | 0.00 | 0.00 | 50 | 1011.1 |
| 20260502053530 | 52 | 332 | 7.0 | 17.4 | 0.00 | 0.00 | 0.00 | 49 | 1011.1 |
| 20260502053429 | 52 | 263 | 7.0 | 17.4 | 0.00 | 0.00 | 0.00 | 49 | 1011.1 |
| 20260502053328 | 52 | 217 | 12.2 | 17.4 | 0.00 | 0.00 | 0.00 | 50 | 1011.1 |
| 20260502053238 | 52 | 251 | 9.6 | 17.4 | 0.00 | 0.00 | 0.00 | 48 | 1011.1 |
| 20260502053147 | 52 | 318 | 9.6 | 17.4 | 0.00 | 0.00 | 0.00 | 48 | 1011.1 |
| 20260502053029 | 52 | 332 | 10.4 | 17.4 | 0.00 | 0.00 | 0.00 | 49 | 1011.1 |
| 20260502052947 | 53 | 45 | 8.7 | 17.4 | 0.00 | 0.00 | 0.00 | 49 | 1011.1 |
| 20260502052905 | 53 | 311 | 9.6 | 17.4 | 0.00 | 0.00 | 0.00 | 49 | 1011.3 |
| 20260502052742 | 53 | 188 | 12.2 | 17.4 | 0.00 | 0.00 | 0.00 | 49 | 1011.3 |
| 20260502052641 | 53 | 311 | 8.7 | 16.5 | 0.00 | 0.00 | 0.00 | 49 | 1011.3 |
| 20260502052538 | 53 | 227 | 9.6 | 17.4 | 0.00 | 0.00 | 0.00 | 49 | 1011.3 |
| 20260502052437 | 53 | 335 | 8.7 | 17.4 | 0.00 | 0.00 | 0.00 | 50 | 1011.3 |
| 20260502052355 | 53 | 241 | 7.0 | 17.4 | 0.00 | 0.00 | 0.00 | 49 | 1011.3 |
| 20260502052238 | 53 | 158 | 6.1 | 17.4 | 0.00 | 0.00 | 0.00 | 49 | 1011.3 |
| 20260502052157 | 53 | 230 | 7.0 | 17.4 | 0.00 | 0.00 | 0.00 | 48 | 1011.3 |
| 20260502052033 | 53 | 199 | 7.8 | 17.4 | 0.00 | 0.00 | 0.00 | 48 | 1011.3 |
| 20260502051934 | 53 | 289 | 6.1 | 17.4 | 0.00 | 0.00 | 0.00 | 47 | 1011.3 |
| 20260502051832 | 53 | 48 | 12.2 | 17.4 | 0.00 | 0.00 | 0.00 | 48 | 1011.3 |
| 20260502051741 | 53 | 326 | 13.9 | 17.4 | 0.00 | 0.00 | 0.00 | 47 | 1011.3 |
| 20260502051649 | 53 | 176 | 11.3 | 17.4 | 0.00 | 0.00 | 0.00 | 49 | 1011.3 |
| 20260502051527 | 53 | 64 | 8.7 | 15.6 | 0.00 | 0.00 | 0.00 | 48 | 1011.3 |
| 20260502051429 | 53 | 226 | 8.7 | 15.6 | 0.00 | 0.00 | 0.00 | 47 | 1011.3 |
| 20260502051328 | 53 | 110 | 7.0 | 15.6 | 0.00 | 0.00 | 0.00 | 47 | 1011.1 |
| 20260502051225 | 53 | 145 | 8.7 | 15.6 | 0.00 | 0.00 | 0.00 | 49 | 1011.1 |
| 20260502051123 | 53 | 333 | 7.0 | 15.6 | 0.00 | 0.00 | 0.00 | 49 | 1011.1 |
| 20260502051024 | 53 | 265 | 9.6 | 15.6 | 0.00 | 0.00 | 0.00 | 49 | 1011.1 |
| 20260502050943 | 53 | 175 | 7.8 | 15.6 | 0.00 | 0.00 | 0.00 | 50 | 1011.1 |
| 20260502050841 | 53 | 304 | 8.7 | 14.8 | 0.00 | 0.00 | 0.00 | 48 | 1011.1 |
| 20260502050759 | 53 | 195 | 7.0 | 14.8 | 0.00 | 0.00 | 0.00 | 48 | 1011.1 |
| 20260502050659 | 53 | 191 | 6.1 | 14.8 | 0.00 | 0.00 | 0.00 | 48 | 1011.1 |
| 20260502050537 | 53 | 289 | 8.7 | 18.2 | 0.00 | 0.00 | 0.00 | 48 | 1011.1 |
| 20260502050435 | 53 | 61 | 7.0 | 18.2 | 0.00 | 0.00 | 0.00 | 48 | 1011.1 |
| 20260502050335 | 53 | 160 | 7.0 | 18.2 | 0.00 | 0.00 | 0.00 | 48 | 1011.1 |
| 20260502050244 | 53 | 157 | 7.8 | 18.2 | 0.00 | 0.00 | 0.00 | 48 | 1011.1 |
| 20260502050154 | 53 | 332 | 4.3 | 18.2 | 0.00 | 0.00 | 0.00 | 49 | 1011.1 |
| 20260502050050 | 53 | 109 | 7.0 | 18.2 | 0.00 | 0.00 | 0.00 | 47 | 1011.1 |
| 20260502045946 | 53 | 248 | 7.0 | 18.2 | 0.00 | 0.00 | 0.00 | 47 | 1011.1 |
| 20260502045827 | 53 | 278 | 10.4 | 18.2 | 0.00 | 0.00 | 0.00 | 47 | 1010.9 |
| 20260502045745 | 53 | 248 | 13.0 | 18.2 | 0.00 | 0.00 | 0.00 | 47 | 1010.9 |
| 20260502045704 | 53 | 296 | 10.4 | 17.4 | 0.00 | 0.00 | 0.00 | 47 | 1010.9 |
| 20260502045540 | 53 | 335 | 11.3 | 17.4 | 0.00 | 0.00 | 0.00 | 47 | 1010.9 |
| 20260502045458 | 53 | 271 | 12.2 | 17.4 | 0.00 | 0.00 | 0.00 | 47 | 1010.9 |
| 20260502045335 | 53 | 240 | 11.3 | 17.4 | 0.00 | 0.00 | 0.00 | 47 | 1010.9 |
| 20260502045233 | 53 | 233 | 9.6 | 16.5 | 0.00 | 0.00 | 0.00 | 47 | 1010.9 |
| 20260502045130 | 53 | 200 | 10.4 | 16.5 | 0.00 | 0.00 | 0.00 | 48 | 1010.9 |
| 20260502045034 | 53 | 277 | 7.8 | 14.8 | 0.00 | 0.00 | 0.00 | 48 | 1010.9 |
| 20260502044933 | 53 | 320 | 7.0 | 14.8 | 0.00 | 0.00 | 0.00 | 48 | 1010.9 |
| 20260502044831 | 53 | 322 | 9.6 | 14.8 | 0.00 | 0.00 | 0.00 | 48 | 1010.9 |
| 20260502044748 | 53 | 126 | 10.4 | 13.9 | 0.00 | 0.00 | 0.00 | 48 | 1010.9 |
| 20260502044658 | 53 | 240 | 8.7 | 14.8 | 0.00 | 0.00 | 0.00 | 49 | 1010.9 |
| 20260502044535 | 53 | 229 | 6.1 | 19.1 | 0.00 | 0.00 | 0.00 | 49 | 1010.9 |
| 20260502044433 | 53 | 329 | 6.1 | 19.1 | 0.00 | 0.00 | 0.00 | 49 | 1010.9 |
| 20260502044331 | 53 | 322 | 7.8 | 19.1 | 0.00 | 0.00 | 0.00 | 49 | 1010.9 |
| 20260502044254 | 53 | 278 | 6.1 | 19.1 | 0.00 | 0.00 | 0.00 | 49 | 1010.9 |
| 20260502044132 | 53 | 145 | 6.1 | 19.1 | 0.00 | 0.00 | 0.00 | 48 | 1010.9 |
| 20260502044030 | 53 | 229 | 7.8 | 19.1 | 0.00 | 0.00 | 0.00 | 50 | 1010.9 |
| 20260502043928 | 53 | 106 | 8.7 | 19.1 | 0.00 | 0.00 | 0.00 | 50 | 1010.9 |
| 20260502043827 | 53 | 260 | 8.7 | 19.1 | 0.00 | 0.00 | 0.00 | 50 | 1010.9 |
| 20260502043725 | 53 | 208 | 9.6 | 19.1 | 0.00 | 0.00 | 0.00 | 49 | 1010.9 |
| 20260502043643 | 53 | 292 | 10.4 | 19.1 | 0.00 | 0.00 | 0.00 | 49 | 1010.9 |
| 20260502043601 | 53 | 253 | 8.7 | 16.5 | 0.00 | 0.00 | 0.00 | 49 | 1010.9 |
| 20260502043442 | 53 | 313 | 7.0 | 16.5 | 0.00 | 0.00 | 0.00 | 49 | 1010.9 |
| 20260502043341 | 53 | 287 | 7.8 | 16.5 | 0.00 | 0.00 | 0.00 | 48 | 1010.9 |
| 20260502043259 | 53 | 247 | 7.8 | 16.5 | 0.00 | 0.00 | 0.00 | 47 | 1010.9 |
| 20260502043211 | 53 | 311 | 10.4 | 16.5 | 0.00 | 0.00 | 0.00 | 47 | 1010.9 |
| 20260502043108 | 54 | 291 | 11.3 | 16.5 | 0.00 | 0.00 | 0.00 | 49 | 1010.9 |
| 20260502043006 | 54 | 92 | 8.7 | 17.4 | 0.00 | 0.00 | 0.00 | 49 | 1010.9 |
| 20260502042902 | 54 | 147 | 8.7 | 17.4 | 0.00 | 0.00 | 0.00 | 50 | 1011.0 |
| 20260502042740 | 54 | 131 | 12.2 | 17.4 | 0.00 | 0.00 | 0.00 | 50 | 1011.0 |
| 20260502042659 | 54 | 229 | 9.6 | 17.4 | 0.00 | 0.00 | 0.00 | 50 | 1011.0 |
| 20260502042600 | 54 | 299 | 5.2 | 17.4 | 0.00 | 0.00 | 0.00 | 49 | 1011.0 |
| 20260502042440 | 54 | 265 | 7.8 | 17.4 | 0.00 | 0.00 | 0.00 | 48 | 1011.0 |
| 20260502042337 | 54 | 299 | 7.0 | 17.4 | 0.00 | 0.00 | 0.00 | 49 | 1011.0 |
| 20260502042236 | 54 | 281 | 9.6 | 17.4 | 0.00 | 0.00 | 0.00 | 49 | 1011.0 |
| 20260502042154 | 54 | 301 | 12.2 | 17.4 | 0.00 | 0.00 | 0.00 | 51 | 1011.0 |
| 20260502042035 | 54 | 260 | 13.0 | 16.5 | 0.00 | 0.00 | 0.00 | 49 | 1011.0 |
| 20260502041932 | 54 | 275 | 7.8 | 14.8 | 0.00 | 0.00 | 0.00 | 50 | 1011.0 |
| 20260502041832 | 54 | 316 | 8.7 | 14.8 | 0.00 | 0.00 | 0.00 | 50 | 1011.0 |
| 20260502041802 | 54 | 304 | 7.8 | 14.8 | 0.00 | 0.00 | 0.00 | 50 | 1011.0 |
| 20260502041653 | 54 | 296 | 6.1 | 16.5 | 0.00 | 0.00 | 0.00 | 50 | 1011.0 |
| 20260502041531 | 54 | 253 | 9.6 | 16.5 | 0.00 | 0.00 | 0.00 | 50 | 1011.0 |
| 20260502041428 | 54 | 261 | 6.1 | 16.5 | 0.00 | 0.00 | 0.00 | 50 | 1011.0 |
| 20260502041347 | 54 | 254 | 4.3 | 16.5 | 0.00 | 0.00 | 0.00 | 51 | 1011.1 |
| 20260502041228 | 54 | 295 | 7.0 | 16.5 | 0.00 | 0.00 | 0.00 | 51 | 1011.1 |
| 20260502041145 | 54 | 147 | 8.7 | 16.5 | 0.00 | 0.00 | 0.00 | 51 | 1011.1 |
| 20260502041104 | 54 | 206 | 7.8 | 16.5 | 0.00 | 0.00 | 0.00 | 51 | 1011.1 |
| 20260502041002 | 54 | 167 | 7.0 | 16.5 | 0.00 | 0.00 | 0.00 | 51 | 1011.1 |
| 20260502040840 | 54 | 99 | 5.2 | 16.5 | 0.00 | 0.00 | 0.00 | 51 | 1011.1 |
| 20260502040724 | 54 | 268 | 8.7 | 16.5 | 0.00 | 0.00 | 0.00 | 51 | 1011.1 |
| 20260502040642 | 54 | 294 | 7.8 | 14.8 | 0.00 | 0.00 | 0.00 | 51 | 1011.1 |
| 20260502040541 | 54 | 329 | 10.4 | 14.8 | 0.00 | 0.00 | 0.00 | 50 | 1011.1 |
| 20260502040438 | 54 | 203 | 9.6 | 14.8 | 0.00 | 0.00 | 0.00 | 50 | 1011.1 |
| 20260502040336 | 54 | 52 | 7.8 | 14.8 | 0.00 | 0.00 | 0.00 | 50 | 1011.1 |
| 20260502040253 | 54 | 326 | 10.4 | 14.8 | 0.00 | 0.00 | 0.00 | 50 | 1011.1 |
| 20260502040225 | 54 | 253 | 7.8 | 17.4 | 0.00 | 0.00 | 0.00 | 50 | 1011.1 |
| 20260502040041 | 54 | 93 | 7.0 | 17.4 | 0.00 | 0.00 | 0.00 | 50 | 1011.1 |
| 20260502035942 | 54 | 354 | 10.4 | 17.4 | 0.00 | 0.00 | 0.00 | 50 | 1011.1 |
| 20260502035901 | 54 | 316 | 9.6 | 17.4 | 0.00 | 0.00 | 0.00 | 50 | 1011.0 |
| 20260502035758 | 54 | 296 | 7.8 | 17.4 | 0.00 | 0.00 | 0.00 | 51 | 1011.0 |
| 20260502035635 | 54 | 284 | 7.8 | 17.4 | 0.00 | 0.00 | 0.00 | 50 | 1011.0 |
| 20260502035534 | 54 | 199 | 6.1 | 17.4 | 0.00 | 0.00 | 0.00 | 50 | 1011.0 |
| 20260502035433 | 54 | 330 | 8.7 | 17.4 | 0.00 | 0.00 | 0.00 | 49 | 1011.0 |
| 20260502035330 | 54 | 167 | 10.4 | 17.4 | 0.00 | 0.00 | 0.00 | 49 | 1011.0 |
| 20260502035230 | 54 | 200 | 9.6 | 17.4 | 0.00 | 0.00 | 0.00 | 50 | 1011.0 |
| 20260502035133 | 54 | 209 | 8.7 | 13.9 | 0.00 | 0.00 | 0.00 | 50 | 1011.0 |
| 20260502035031 | 54 | 288 | 8.7 | 13.9 | 0.00 | 0.00 | 0.00 | 50 | 1011.0 |
| 20260502034930 | 54 | 305 | 8.7 | 13.9 | 0.00 | 0.00 | 0.00 | 50 | 1011.0 |
| 20260502034827 | 54 | 103 | 8.7 | 13.9 | 0.00 | 0.00 | 0.00 | 50 | 1011.0 |
| 20260502034738 | 54 | 128 | 6.1 | 12.2 | 0.00 | 0.00 | 0.00 | 51 | 1011.0 |
| 20260502034647 | 54 | 332 | 5.2 | 12.2 | 0.00 | 0.00 | 0.00 | 52 | 1011.0 |
| 20260502034545 | 54 | 335 | 7.8 | 12.2 | 0.00 | 0.00 | 0.00 | 52 | 1011.0 |
| 20260502034503 | 54 | 296 | 6.1 | 12.2 | 0.00 | 0.00 | 0.00 | 51 | 1011.0 |
| 20260502034405 | 54 | 178 | 7.0 | 12.2 | 0.00 | 0.00 | 0.00 | 51 | 1011.2 |
| 20260502034242 | 55 | 178 | 7.8 | 12.2 | 0.00 | 0.00 | 0.00 | 51 | 1011.2 |
| 20260502034141 | 55 | 212 | 8.7 | 12.2 | 0.00 | 0.00 | 0.00 | 52 | 1011.2 |
| 20260502034038 | 55 | 209 | 9.6 | 12.2 | 0.00 | 0.00 | 0.00 | 51 | 1011.2 |
| 20260502033935 | 55 | 220 | 7.8 | 12.2 | 0.00 | 0.00 | 0.00 | 51 | 1011.2 |
| 20260502033834 | 55 | 313 | 7.0 | 12.2 | 0.00 | 0.00 | 0.00 | 51 | 1011.2 |
| 20260502033731 | 55 | 216 | 7.0 | 12.2 | 0.00 | 0.00 | 0.00 | 51 | 1011.2 |
| 20260502033653 | 55 | 280 | 4.3 | 12.2 | 0.00 | 0.00 | 0.00 | 51 | 1011.2 |
| 20260502033529 | 55 | 287 | 6.1 | 13.9 | 0.00 | 0.00 | 0.00 | 52 | 1011.2 |
| 20260502033425 | 55 | 301 | 7.8 | 13.9 | 0.00 | 0.00 | 0.00 | 54 | 1011.2 |
| 20260502033343 | 55 | 232 | 6.1 | 13.9 | 0.00 | 0.00 | 0.00 | 54 | 1011.2 |
| 20260502033241 | 55 | 179 | 6.1 | 13.9 | 0.00 | 0.00 | 0.00 | 54 | 1011.2 |
| 20260502033212 | 55 | 58 | 8.7 | 13.9 | 0.00 | 0.00 | 0.00 | 54 | 1011.2 |
| 20260502033027 | 55 | 155 | 4.3 | 13.9 | 0.00 | 0.00 | 0.00 | 53 | 1011.2 |
| 20260502032926 | 55 | 305 | 7.8 | 13.9 | 0.00 | 0.00 | 0.00 | 53 | 1011.2 |
| 20260502032844 | 55 | 285 | 8.7 | 13.9 | 0.00 | 0.00 | 0.00 | 53 | 1011.6 |
| 20260502032726 | 55 | 76 | 9.6 | 14.8 | 0.00 | 0.00 | 0.00 | 54 | 1011.6 |
| 20260502032644 | 55 | 206 | 7.0 | 14.8 | 0.00 | 0.00 | 0.00 | 54 | 1011.6 |
| 20260502032542 | 55 | 280 | 6.1 | 14.8 | 0.00 | 0.00 | 0.00 | 55 | 1011.6 |
| 20260502032439 | 55 | 332 | 7.8 | 14.8 | 0.00 | 0.00 | 0.00 | 53 | 1011.6 |
| 20260502032338 | 55 | 79 | 8.7 | 14.8 | 0.00 | 0.00 | 0.00 | 53 | 1011.6 |
| 20260502032256 | 55 | 353 | 8.7 | 14.8 | 0.00 | 0.00 | 0.00 | 53 | 1011.6 |
| 20260502032133 | 55 | 134 | 4.3 | 14.8 | 0.00 | 0.00 | 0.00 | 53 | 1011.6 |
| 20260502032031 | 55 | 294 | 5.2 | 14.8 | 0.00 | 0.00 | 0.00 | 53 | 1011.6 |
| 20260502031933 | 55 | 325 | 10.4 | 14.8 | 0.00 | 0.00 | 0.00 | 53 | 1011.6 |
| 20260502031852 | 55 | 175 | 9.6 | 14.8 | 0.00 | 0.00 | 0.00 | 55 | 1011.6 |
| 20260502031741 | 55 | 246 | 8.7 | 14.8 | 0.00 | 0.00 | 0.00 | 55 | 1011.6 |
| 20260502031649 | 55 | 328 | 7.8 | 14.8 | 0.00 | 0.00 | 0.00 | 55 | 1011.6 |
| 20260502031526 | 55 | 326 | 7.0 | 14.8 | 0.00 | 0.00 | 0.00 | 56 | 1011.6 |
| 20260502031426 | 55 | 333 | 6.1 | 14.8 | 0.00 | 0.00 | 0.00 | 56 | 1011.6 |
| 20260502031324 | 55 | 332 | 6.1 | 15.6 | 0.00 | 0.00 | 0.00 | 56 | 1011.7 |
| 20260502031243 | 55 | 134 | 7.0 | 15.6 | 0.00 | 0.00 | 0.00 | 56 | 1011.7 |
| 20260502031140 | 55 | 239 | 7.0 | 15.6 | 0.00 | 0.00 | 0.00 | 56 | 1011.7 |
| 20260502031103 | 55 | 329 | 7.0 | 15.6 | 0.00 | 0.00 | 0.00 | 56 | 1011.7 |
| 20260502030940 | 55 | 243 | 6.1 | 15.6 | 0.00 | 0.00 | 0.00 | 56 | 1011.7 |
| 20260502030839 | 55 | 318 | 3.5 | 15.6 | 0.00 | 0.00 | 0.00 | 55 | 1011.7 |
| 20260502030737 | 55 | 239 | 7.0 | 15.6 | 0.00 | 0.00 | 0.00 | 55 | 1011.7 |
| 20260502030634 | 55 | 330 | 8.7 | 15.6 | 0.00 | 0.00 | 0.00 | 56 | 1011.7 |
| 20260502030532 | 56 | 246 | 8.7 | 15.6 | 0.00 | 0.00 | 0.00 | 57 | 1011.7 |
| 20260502030430 | 56 | 176 | 7.0 | 15.6 | 0.00 | 0.00 | 0.00 | 57 | 1011.7 |
| 20260502030333 | 56 | 350 | 7.8 | 15.6 | 0.00 | 0.00 | 0.00 | 57 | 1011.7 |
| 20260502030244 | 56 | 292 | 4.3 | 15.6 | 0.00 | 0.00 | 0.00 | 56 | 1011.7 |
| 20260502030153 | 56 | 313 | 5.2 | 15.6 | 0.00 | 0.00 | 0.00 | 56 | 1011.7 |
| 20260502030030 | 56 | 265 | 3.5 | 15.6 | 0.00 | 0.00 | 0.00 | 56 | 1011.7 |
| 20260502025948 | 56 | 304 | 8.7 | 15.6 | 0.00 | 0.00 | 0.00 | 57 | 1011.7 |
| 20260502025845 | 56 | 325 | 8.7 | 15.6 | 0.00 | 0.00 | 0.00 | 57 | 1011.7 |
| 20260502025803 | 56 | 167 | 7.8 | 15.6 | 0.00 | 0.00 | 0.00 | 57 | 1011.7 |
| 20260502025641 | 56 | 280 | 8.7 | 15.6 | 0.00 | 0.00 | 0.00 | 57 | 1011.7 |
| 20260502025543 | 56 | 56 | 2.6 | 10.4 | 0.00 | 0.00 | 0.00 | 57 | 1011.7 |
| 20260502025441 | 56 | 325 | 5.2 | 13.0 | 0.00 | 0.00 | 0.00 | 57 | 1011.7 |
| 20260502025340 | 56 | 339 | 5.2 | 13.0 | 0.00 | 0.00 | 0.00 | 57 | 1011.7 |
| 20260502025238 | 56 | 333 | 6.1 | 13.0 | 0.00 | 0.00 | 0.00 | 57 | 1011.7 |
| 20260502025137 | 56 | 274 | 7.8 | 13.0 | 0.00 | 0.00 | 0.00 | 57 | 1011.7 |
| 20260502025036 | 56 | 360 | 6.1 | 13.0 | 0.00 | 0.00 | 0.00 | 59 | 1011.7 |
| 20260502024953 | 56 | 332 | 3.5 | 13.0 | 0.00 | 0.00 | 0.00 | 59 | 1011.7 |
| 20260502024835 | 56 | 332 | 6.1 | 13.0 | 0.00 | 0.00 | 0.00 | 58 | 1011.7 |
| 20260502024755 | 56 | 330 | 7.0 | 13.0 | 0.00 | 0.00 | 0.00 | 58 | 1011.7 |
| 20260502024725 | 56 | 248 | 7.8 | 13.0 | 0.00 | 0.00 | 0.00 | 59 | 1011.7 |
| 20260502024542 | 56 | 244 | 4.3 | 15.6 | 0.00 | 0.00 | 0.00 | 59 | 1011.7 |
| 20260502024440 | 56 | 88 | 6.1 | 15.6 | 0.00 | 0.00 | 0.00 | 59 | 1011.7 |
| 20260502024337 | 56 | 329 | 4.3 | 15.6 | 0.00 | 0.00 | 0.00 | 59 | 1011.3 |
| 20260502024257 | 56 | 330 | 5.2 | 15.6 | 0.00 | 0.00 | 0.00 | 59 | 1011.3 |
| 20260502024135 | 56 | 354 | 6.1 | 15.6 | 0.00 | 0.00 | 0.00 | 59 | 1011.3 |
| 20260502024054 | 56 | 330 | 4.3 | 15.6 | 0.00 | 0.00 | 0.00 | 59 | 1011.3 |
| 20260502023938 | 56 | 289 | 6.1 | 15.6 | 0.00 | 0.00 | 0.00 | 58 | 1011.3 |
| 20260502023837 | 56 | 188 | 7.0 | 15.6 | 0.00 | 0.00 | 0.00 | 58 | 1011.3 |
| 20260502023736 | 56 | 332 | 8.7 | 15.6 | 0.00 | 0.00 | 0.00 | 59 | 1011.3 |
| 20260502023633 | 56 | 311 | 4.3 | 12.2 | 0.00 | 0.00 | 0.00 | 59 | 1011.3 |
| 20260502023552 | 56 | 154 | 7.0 | 12.2 | 0.00 | 0.00 | 0.00 | 59 | 1011.3 |
| 20260502023451 | 56 | 243 | 5.2 | 12.2 | 0.00 | 0.00 | 0.00 | 59 | 1011.3 |
| 20260502023333 | 56 | 192 | 7.0 | 12.2 | 0.00 | 0.00 | 0.00 | 58 | 1011.3 |
| 20260502023302 | 57 | 270 | 7.8 | 12.2 | 0.00 | 0.00 | 0.00 | 58 | 1011.3 |
| 20260502023154 | 57 | 256 | 8.7 | 12.2 | 0.00 | 0.00 | 0.00 | 59 | 1011.3 |
| 20260502023030 | 57 | 174 | 4.3 | 12.2 | 0.00 | 0.00 | 0.00 | 59 | 1011.3 |
| 20260502022929 | 57 | 333 | 8.7 | 12.2 | 0.00 | 0.00 | 0.00 | 59 | 1011.3 |
| 20260502022828 | 57 | 196 | 7.8 | 12.2 | 0.00 | 0.00 | 0.00 | 60 | 1011.1 |
| 20260502022725 | 57 | 357 | 3.5 | 11.3 | 0.00 | 0.00 | 0.00 | 60 | 1011.1 |
| 20260502022624 | 57 | 333 | 3.5 | 11.3 | 0.00 | 0.00 | 0.00 | 60 | 1011.1 |
| 20260502022542 | 57 | 335 | 4.3 | 11.3 | 0.00 | 0.00 | 0.00 | 59 | 1011.1 |
| 20260502022444 | 57 | 329 | 5.2 | 11.3 | 0.00 | 0.00 | 0.00 | 59 | 1011.1 |
| 20260502022402 | 57 | 59 | 6.1 | 12.2 | 0.00 | 0.00 | 0.00 | 59 | 1011.1 |
| 20260502022239 | 57 | 107 | 7.0 | 14.8 | 0.00 | 0.00 | 0.00 | 60 | 1011.1 |
| 20260502022138 | 57 | 162 | 6.1 | 14.8 | 0.00 | 0.00 | 0.00 | 59 | 1011.1 |
| 20260502022039 | 57 | 275 | 4.3 | 14.8 | 0.00 | 0.00 | 0.00 | 59 | 1011.1 |
| 20260502021938 | 57 | 168 | 4.3 | 14.8 | 0.00 | 0.00 | 0.00 | 59 | 1011.1 |
| 20260502021835 | 57 | 320 | 7.0 | 14.8 | 0.00 | 0.00 | 0.00 | 58 | 1011.1 |
| 20260502021738 | 57 | 330 | 7.0 | 14.8 | 0.00 | 0.00 | 0.00 | 59 | 1011.1 |
| 20260502021646 | 57 | 193 | 7.0 | 14.8 | 0.00 | 0.00 | 0.00 | 59 | 1011.1 |
| 20260502021543 | 57 | 212 | 7.0 | 14.8 | 0.00 | 0.00 | 0.00 | 60 | 1011.1 |
| 20260502021440 | 57 | 360 | 6.1 | 14.8 | 0.00 | 0.00 | 0.00 | 60 | 1011.1 |
| 20260502021342 | 57 | 306 | 6.1 | 14.8 | 0.00 | 0.00 | 0.00 | 60 | 1011.0 |
| 20260502021240 | 57 | 227 | 4.3 | 12.2 | 0.00 | 0.00 | 0.00 | 60 | 1011.0 |
| 20260502021138 | 57 | 330 | 6.1 | 12.2 | 0.00 | 0.00 | 0.00 | 60 | 1011.0 |
| 20260502021037 | 57 | 160 | 7.0 | 12.2 | 0.00 | 0.00 | 0.00 | 59 | 1011.0 |
| 20260502020939 | 57 | 54 | 6.1 | 12.2 | 0.00 | 0.00 | 0.00 | 61 | 1011.0 |
| 20260502020835 | 57 | 333 | 4.3 | 12.2 | 0.00 | 0.00 | 0.00 | 61 | 1011.0 |
| 20260502020733 | 57 | 148 | 6.1 | 12.2 | 0.00 | 0.00 | 0.00 | 60 | 1011.0 |
| 20260502020653 | 57 | 346 | 7.0 | 12.2 | 0.00 | 0.00 | 0.00 | 59 | 1011.0 |
| 20260502020531 | 57 | 206 | 7.8 | 12.2 | 0.00 | 0.00 | 0.00 | 59 | 1011.0 |
| 20260502020428 | 57 | 330 | 6.1 | 12.2 | 0.00 | 0.00 | 0.00 | 60 | 1011.0 |
| 20260502020328 | 57 | 343 | 3.5 | 12.2 | 0.00 | 0.00 | 0.00 | 60 | 1011.0 |
| 20260502020240 | 57 | 336 | 6.1 | 12.2 | 0.00 | 0.00 | 0.00 | 59 | 1011.0 |
| 20260502020151 | 57 | 51 | 7.8 | 12.2 | 0.00 | 0.00 | 0.00 | 59 | 1011.0 |
| 20260502020028 | 57 | 226 | 7.8 | 12.2 | 0.00 | 0.00 | 0.00 | 60 | 1011.0 |
| 20260502015946 | 57 | 34 | 6.1 | 12.2 | 0.00 | 0.00 | 0.00 | 61 | 1011.0 |
| 20260502015905 | 57 | 192 | 7.8 | 12.2 | 0.00 | 0.00 | 0.00 | 60 | 1010.8 |
| 20260502015735 | 58 | 346 | 7.0 | 12.2 | 0.00 | 0.00 | 0.00 | 59 | 1010.8 |
| 20260502015635 | 58 | 120 | 7.8 | 12.2 | 0.00 | 0.00 | 0.00 | 62 | 1010.8 |
| 20260502015532 | 58 | 145 | 7.8 | 12.2 | 0.00 | 0.00 | 0.00 | 61 | 1010.8 |
| 20260502015436 | 58 | 247 | 8.7 | 12.2 | 0.00 | 0.00 | 0.00 | 62 | 1010.8 |
| 20260502015334 | 58 | 83 | 1.7 | 12.2 | 0.00 | 0.00 | 0.00 | 62 | 1010.8 |
| 20260502015233 | 58 | 330 | 4.3 | 12.2 | 0.00 | 0.00 | 0.00 | 63 | 1010.8 |
| 20260502015152 | 58 | 328 | 6.1 | 12.2 | 0.00 | 0.00 | 0.00 | 64 | 1010.8 |
| 20260502015030 | 58 | 332 | 3.5 | 12.2 | 0.00 | 0.00 | 0.00 | 64 | 1010.8 |
| 20260502014928 | 58 | 356 | 2.6 | 12.2 | 0.00 | 0.00 | 0.00 | 63 | 1010.8 |
| 20260502014826 | 58 | 356 | 5.2 | 12.2 | 0.00 | 0.00 | 0.00 | 63 | 1010.8 |
| 20260502014730 | 58 | 325 | 3.5 | 10.4 | 0.00 | 0.00 | 0.00 | 64 | 1010.8 |
| 20260502014700 | 58 | 203 | 4.3 | 10.4 | 0.00 | 0.00 | 0.00 | 65 | 1010.8 |
| 20260502014535 | 58 | 174 | 4.3 | 10.4 | 0.00 | 0.00 | 0.00 | 65 | 1010.8 |
| 20260502014432 | 58 | 85 | 4.3 | 9.6 | 0.00 | 0.00 | 0.00 | 65 | 1010.8 |
| 20260502014331 | 58 | 260 | 4.3 | 9.6 | 0.00 | 0.00 | 0.00 | 65 | 1010.9 |
| 20260502014230 | 58 | 251 | 2.6 | 9.6 | 0.00 | 0.00 | 0.00 | 65 | 1010.9 |
| 20260502014128 | 58 | 151 | 5.2 | 9.6 | 0.00 | 0.00 | 0.00 | 66 | 1010.9 |
| 20260502014025 | 58 | 73 | 4.3 | 9.6 | 0.00 | 0.00 | 0.00 | 66 | 1010.9 |
| 20260502013931 | 58 | 124 | 3.5 | 9.6 | 0.00 | 0.00 | 0.00 | 66 | 1010.9 |
| 20260502013850 | 58 | 326 | 3.5 | 8.7 | 0.00 | 0.00 | 0.00 | 65 | 1010.9 |
| 20260502013729 | 58 | 332 | 4.3 | 7.0 | 0.00 | 0.00 | 0.00 | 65 | 1010.9 |
| 20260502013626 | 58 | 28 | 3.5 | 7.8 | 0.00 | 0.00 | 0.00 | 65 | 1010.9 |
| 20260502013524 | 58 | 14 | 3.5 | 7.8 | 0.00 | 0.00 | 0.00 | 65 | 1010.9 |
| 20260502013443 | 58 | 116 | 4.3 | 7.8 | 0.00 | 0.00 | 0.00 | 65 | 1010.9 |
| 20260502013342 | 58 | 93 | 4.3 | 7.8 | 0.00 | 0.00 | 0.00 | 65 | 1010.9 |
| 20260502013300 | 58 | 359 | 4.3 | 7.8 | 0.00 | 0.00 | 0.00 | 65 | 1010.9 |
| 20260502013155 | 58 | 128 | 4.3 | 7.8 | 0.00 | 0.00 | 0.00 | 64 | 1010.9 |
| 20260502013051 | 58 | 346 | 4.3 | 7.8 | 0.00 | 0.00 | 0.00 | 64 | 1010.9 |
| 20260502012930 | 58 | 347 | 4.3 | 7.8 | 0.00 | 0.00 | 0.00 | 64 | 1010.9 |
| 20260502012827 | 58 | 72 | 6.1 | 9.6 | 0.00 | 0.00 | 0.00 | 64 | 1010.8 |
| 20260502012745 | 58 | 354 | 5.2 | 10.4 | 0.00 | 0.00 | 0.00 | 64 | 1010.8 |
| 20260502012704 | 58 | 325 | 3.5 | 10.4 | 0.00 | 0.00 | 0.00 | 64 | 1010.8 |
| 20260502012541 | 58 | 332 | 3.5 | 10.4 | 0.00 | 0.00 | 0.00 | 63 | 1010.8 |
| 20260502012439 | 58 | 332 | 3.5 | 10.4 | 0.00 | 0.00 | 0.00 | 63 | 1010.8 |
| 20260502012337 | 58 | 335 | 3.5 | 10.4 | 0.00 | 0.00 | 0.00 | 62 | 1010.8 |
| 20260502012259 | 58 | 325 | 5.2 | 10.4 | 0.00 | 0.00 | 0.00 | 62 | 1010.8 |
| 20260502012155 | 58 | 350 | 5.2 | 10.4 | 0.00 | 0.00 | 0.00 | 62 | 1010.8 |
| 20260502012032 | 58 | 360 | 6.1 | 10.4 | 0.00 | 0.00 | 0.00 | 62 | 1010.8 |
| 20260502011930 | 58 | 357 | 6.1 | 10.4 | 0.00 | 0.00 | 0.00 | 62 | 1010.8 |
| 20260502011830 | 58 | 326 | 3.5 | 8.7 | 0.00 | 0.00 | 0.00 | 62 | 1010.8 |
| 20260502011739 | 58 | 30 | 5.2 | 8.7 | 0.00 | 0.00 | 0.00 | 61 | 1010.8 |
| 20260502011648 | 58 | 344 | 3.5 | 8.7 | 0.00 | 0.00 | 0.00 | 61 | 1010.8 |
| 20260502011525 | 58 | 328 | 6.1 | 8.7 | 0.00 | 0.00 | 0.00 | 61 | 1010.8 |
| 20260502011427 | 58 | 326 | 3.5 | 7.8 | 0.00 | 0.00 | 0.00 | 61 | 1010.8 |
| 20260502011326 | 58 | 346 | 3.5 | 7.8 | 0.00 | 0.00 | 0.00 | 61 | 1010.7 |
| 20260502011244 | 58 | 343 | 3.5 | 7.8 | 0.00 | 0.00 | 0.00 | 61 | 1010.7 |
| 20260502011143 | 58 | 344 | 3.5 | 7.8 | 0.00 | 0.00 | 0.00 | 61 | 1010.7 |
| 20260502011042 | 58 | 328 | 2.6 | 7.8 | 0.00 | 0.00 | 0.00 | 62 | 1010.7 |
| 20260502010940 | 58 | 330 | 3.5 | 7.8 | 0.00 | 0.00 | 0.00 | 62 | 1010.7 |
| 20260502010838 | 58 | 335 | 3.5 | 7.8 | 0.00 | 0.00 | 0.00 | 62 | 1010.7 |
| 20260502010740 | 59 | 330 | 4.3 | 7.8 | 0.00 | 0.00 | 0.00 | 61 | 1010.7 |
| 20260502010658 | 59 | 312 | 4.3 | 7.8 | 0.00 | 0.00 | 0.00 | 61 | 1010.7 |
| 20260502010535 | 59 | 326 | 3.5 | 7.0 | 0.00 | 0.00 | 0.00 | 61 | 1010.7 |
| 20260502010433 | 59 | 330 | 2.6 | 7.0 | 0.00 | 0.00 | 0.00 | 60 | 1010.7 |
| 20260502010331 | 59 | 332 | 1.7 | 6.1 | 0.00 | 0.00 | 0.00 | 60 | 1010.7 |
| 20260502010229 | 59 | 330 | 2.6 | 6.1 | 0.00 | 0.00 | 0.00 | 60 | 1010.7 |
| 20260502010159 | 59 | 340 | 3.5 | 6.1 | 0.00 | 0.00 | 0.00 | 61 | 1010.7 |
| 20260502010040 | 59 | 339 | 2.6 | 6.1 | 0.00 | 0.00 | 0.00 | 61 | 1010.7 |
| 20260502005938 | 59 | 353 | 3.5 | 6.1 | 0.00 | 0.00 | 0.00 | 61 | 1010.7 |
| 20260502005837 | 59 | 352 | 3.5 | 6.1 | 0.00 | 0.00 | 0.00 | 61 | 1010.6 |
| 20260502005735 | 59 | 332 | 2.6 | 6.1 | 0.00 | 0.00 | 0.00 | 61 | 1010.6 |
| 20260502005635 | 59 | 336 | 2.6 | 6.1 | 0.00 | 0.00 | 0.00 | 61 | 1010.6 |
| 20260502005537 | 59 | 349 | 3.5 | 6.1 | 0.00 | 0.00 | 0.00 | 60 | 1010.6 |
| 20260502005435 | 59 | 329 | 3.5 | 6.1 | 0.00 | 0.00 | 0.00 | 61 | 1010.6 |
| 20260502005358 | 59 | 325 | 4.3 | 6.1 | 0.00 | 0.00 | 0.00 | 61 | 1010.6 |
| 20260502005254 | 59 | 343 | 4.3 | 6.1 | 0.00 | 0.00 | 0.00 | 61 | 1010.6 |
| 20260502005153 | 59 | 346 | 2.6 | 6.1 | 0.00 | 0.00 | 0.00 | 61 | 1010.6 |
| 20260502005029 | 59 | 346 | 2.6 | 6.1 | 0.00 | 0.00 | 0.00 | 61 | 1010.6 |
| 20260502004927 | 59 | 339 | 2.6 | 6.1 | 0.00 | 0.00 | 0.00 | 61 | 1010.6 |
| 20260502004826 | 59 | 333 | 4.3 | 6.1 | 0.00 | 0.00 | 0.00 | 60 | 1010.6 |
| 20260502004724 | 59 | 326 | 4.3 | 6.1 | 0.00 | 0.00 | 0.00 | 62 | 1010.6 |
| 20260502004653 | 59 | 325 | 3.5 | 6.1 | 0.00 | 0.00 | 0.00 | 62 | 1010.6 |
| 20260502004534 | 59 | 326 | 1.7 | 6.1 | 0.00 | 0.00 | 0.00 | 62 | 1010.6 |
| 20260502004434 | 59 | 337 | 2.6 | 6.1 | 0.00 | 0.00 | 0.00 | 61 | 1010.6 |
| 20260502004352 | 59 | 330 | 3.5 | 6.1 | 0.00 | 0.00 | 0.00 | 60 | 1010.0 |
| 20260502004230 | 59 | 330 | 3.5 | 7.0 | 0.00 | 0.00 | 0.00 | 60 | 1010.0 |
| 20260502004127 | 59 | 329 | 0.9 | 7.0 | 0.00 | 0.00 | 0.00 | 60 | 1010.0 |
| 20260502004026 | 59 | 349 | 1.7 | 7.0 | 0.00 | 0.00 | 0.00 | 60 | 1010.0 |
| 20260502003945 | 59 | 319 | 1.7 | 7.0 | 0.00 | 0.00 | 0.00 | 60 | 1010.0 |
| 20260502003843 | 59 | 335 | 0.9 | 7.0 | 0.00 | 0.00 | 0.00 | 60 | 1010.0 |
| 20260502003727 | 59 | 330 | 2.6 | 7.0 | 0.00 | 0.00 | 0.00 | 60 | 1010.0 |
| 20260502003645 | 59 | 328 | 2.6 | 7.0 | 0.00 | 0.00 | 0.00 | 60 | 1010.0 |
| 20260502003603 | 59 | 330 | 1.7 | 7.0 | 0.00 | 0.00 | 0.00 | 61 | 1010.0 |
| 20260502003501 | 59 | 328 | 2.6 | 7.0 | 0.00 | 0.00 | 0.00 | 61 | 1010.0 |
| 20260502003337 | 59 | 342 | 2.6 | 7.0 | 0.00 | 0.00 | 0.00 | 61 | 1010.0 |
| 20260502003235 | 59 | 343 | 3.5 | 6.1 | 0.00 | 0.00 | 0.00 | 60 | 1010.0 |
| 20260502003205 | 59 | 339 | 4.3 | 6.1 | 0.00 | 0.00 | 0.00 | 60 | 1010.0 |
| 20260502003041 | 59 | 329 | 4.3 | 5.2 | 0.00 | 0.00 | 0.00 | 60 | 1010.0 |
| 20260502002924 | 59 | 337 | 2.6 | 6.1 | 0.00 | 0.00 | 0.00 | 60 | 1010.0 |
| 20260502002843 | 59 | 347 | 4.3 | 6.1 | 0.00 | 0.00 | 0.00 | 60 | 1010.0 |
| 20260502002802 | 59 | 349 | 2.6 | 7.0 | 0.00 | 0.00 | 0.00 | 62 | 1010.0 |
| 20260502002641 | 59 | 335 | 3.5 | 7.0 | 0.00 | 0.00 | 0.00 | 62 | 1010.0 |
| 20260502002539 | 59 | 343 | 3.5 | 7.0 | 0.00 | 0.00 | 0.00 | 61 | 1010.0 |
| 20260502002437 | 59 | 340 | 2.6 | 7.0 | 0.00 | 0.00 | 0.00 | 62 | 1010.0 |
| 20260502002335 | 59 | 342 | 2.6 | 7.0 | 0.00 | 0.00 | 0.00 | 62 | 1010.0 |
| 20260502002237 | 59 | 335 | 2.6 | 7.0 | 0.00 | 0.00 | 0.00 | 62 | 1010.0 |
| 20260502002156 | 59 | 343 | 3.5 | 7.0 | 0.00 | 0.00 | 0.00 | 61 | 1010.0 |
| 20260502002034 | 59 | 346 | 2.6 | 7.0 | 0.00 | 0.00 | 0.00 | 61 | 1010.0 |
| 20260502001933 | 59 | 336 | 3.5 | 7.0 | 0.00 | 0.00 | 0.00 | 61 | 1010.0 |
| 20260502001831 | 59 | 339 | 2.6 | 5.2 | 0.00 | 0.00 | 0.00 | 60 | 1010.0 |
| 20260502001740 | 59 | 335 | 2.6 | 6.1 | 0.00 | 0.00 | 0.00 | 60 | 1010.0 |
| 20260502001650 | 59 | 326 | 1.7 | 6.1 | 0.00 | 0.00 | 0.00 | 60 | 1010.0 |
| 20260502001528 | 59 | 335 | 2.6 | 6.1 | 0.00 | 0.00 | 0.00 | 60 | 1010.0 |
| 20260502001430 | 59 | 330 | 2.6 | 6.1 | 0.00 | 0.00 | 0.00 | 60 | 1010.0 |
| 20260502001349 | 59 | 330 | 1.7 | 6.1 | 0.00 | 0.00 | 0.00 | 59 | 1010.0 |
| 20260502001227 | 59 | 328 | 3.5 | 6.1 | 0.00 | 0.00 | 0.00 | 59 | 1010.0 |
| 20260502001145 | 59 | 333 | 3.5 | 6.1 | 0.00 | 0.00 | 0.00 | 59 | 1010.0 |
| 20260502001043 | 59 | 329 | 3.5 | 6.1 | 0.00 | 0.00 | 0.00 | 59 | 1010.0 |
| 20260502000942 | 59 | 335 | 4.3 | 6.1 | 0.00 | 0.00 | 0.00 | 60 | 1010.0 |
| 20260502000841 | 59 | 330 | 4.3 | 6.1 | 0.00 | 0.00 | 0.00 | 60 | 1010.0 |
| 20260502000739 | 59 | 330 | 4.3 | 6.1 | 0.00 | 0.00 | 0.00 | 59 | 1010.0 |
| 20260502000641 | 60 | 330 | 3.5 | 6.1 | 0.00 | 0.00 | 0.00 | 59 | 1010.0 |
| 20260502000539 | 60 | 329 | 2.6 | 5.2 | 0.00 | 0.00 | 0.00 | 59 | 1010.0 |
| 20260502000439 | 60 | 336 | 4.3 | 5.2 | 0.00 | 0.00 | 0.00 | 59 | 1010.0 |
| 20260502000335 | 60 | 333 | 4.3 | 5.2 | 0.00 | 0.00 | 0.00 | 59 | 1010.0 |
| 20260502000255 | 60 | 333 | 3.5 | 5.2 | 0.00 | 0.00 | 0.00 | 59 | 1010.0 |
| 20260502000204 | 60 | 329 | 2.6 | 5.2 | 0.00 | 0.00 | 0.00 | 58 | 1010.0 |
| 20260502000039 | 60 | 340 | 2.6 | 5.2 | 0.00 | 0.00 | 0.00 | 59 | 1010.0 |
| 20260501235943 | 60 | 332 | 2.6 | 5.2 | 0.00 | 0.00 | 0.00 | 58 | 1010.0 |
| 20260501235840 | 60 | 337 | 2.6 | 5.2 | 0.00 | 0.00 | 0.00 | 58 | 1010.0 |
| 20260501235738 | 60 | 339 | 2.6 | 5.2 | 0.00 | 0.00 | 0.00 | 57 | 1010.0 |
| 20260501235637 | 60 | 335 | 1.7 | 5.2 | 0.00 | 0.00 | 0.00 | 57 | 1010.0 |
| 20260501235537 | 60 | 336 | 1.7 | 5.2 | 0.00 | 0.00 | 0.00 | 56 | 1010.0 |
| 20260501235455 | 60 | 339 | 2.6 | 5.2 | 0.00 | 0.00 | 0.00 | 56 | 1010.0 |
| 20260501235333 | 60 | 335 | 1.7 | 5.2 | 0.00 | 0.00 | 0.00 | 57 | 1010.0 |
| 20260501235235 | 60 | 292 | 3.5 | 5.2 | 0.00 | 0.00 | 0.00 | 57 | 1010.0 |
| 20260501235153 | 60 | 308 | 3.5 | 5.2 | 0.00 | 0.00 | 0.00 | 57 | 1010.0 |
| 20260501235050 | 60 | 336 | 1.7 | 5.2 | 0.00 | 0.00 | 0.00 | 57 | 1010.0 |
| 20260501234930 | 60 | 333 | 1.7 | 5.2 | 0.00 | 0.00 | 0.00 | 58 | 1010.0 |
| 20260501234830 | 60 | 337 | 0.9 | 5.2 | 0.00 | 0.00 | 0.00 | 58 | 1010.0 |
| 20260501234739 | 60 | 336 | 1.7 | 5.2 | 0.00 | 0.00 | 0.00 | 58 | 1010.0 |
| 20260501234647 | 60 | 339 | 2.6 | 5.2 | 0.00 | 0.00 | 0.00 | 57 | 1010.0 |
| 20260501234524 | 60 | 337 | 3.5 | 5.2 | 0.00 | 0.00 | 0.00 | 56 | 1010.0 |
| 20260501234428 | 60 | 330 | 1.7 | 5.2 | 0.00 | 0.00 | 0.00 | 57 | 1010.0 |
| 20260501234348 | 60 | 337 | 2.6 | 5.2 | 0.00 | 0.00 | 0.00 | 57 | 1009.6 |
| 20260501234305 | 60 | 339 | 3.5 | 5.2 | 0.00 | 0.00 | 0.00 | 58 | 1009.6 |
| 20260501234141 | 60 | 342 | 2.6 | 5.2 | 0.00 | 0.00 | 0.00 | 58 | 1009.6 |
| 20260501234040 | 60 | 342 | 1.7 | 5.2 | 0.00 | 0.00 | 0.00 | 58 | 1009.6 |
| 20260501233939 | 60 | 343 | 3.5 | 5.2 | 0.00 | 0.00 | 0.00 | 57 | 1009.6 |
| 20260501233837 | 60 | 349 | 3.5 | 5.2 | 0.00 | 0.00 | 0.00 | 57 | 1009.6 |
| 20260501233735 | 60 | 349 | 2.6 | 5.2 | 0.00 | 0.00 | 0.00 | 56 | 1009.6 |
| 20260501233637 | 60 | 350 | 1.7 | 5.2 | 0.00 | 0.00 | 0.00 | 57 | 1009.6 |
| 20260501233555 | 60 | 335 | 1.7 | 5.2 | 0.00 | 0.00 | 0.00 | 57 | 1009.6 |
| 20260501233432 | 60 | 330 | 1.7 | 5.2 | 0.00 | 0.00 | 0.00 | 57 | 1009.6 |
| 20260501233331 | 60 | 332 | 0.9 | 5.2 | 0.00 | 0.00 | 0.00 | 58 | 1009.6 |
| 20260501233301 | 60 | 332 | 3.5 | 6.1 | 0.00 | 0.00 | 0.00 | 58 | 1009.6 |
| 20260501233149 | 60 | 340 | 2.6 | 6.1 | 0.00 | 0.00 | 0.00 | 58 | 1009.6 |
| 20260501233027 | 60 | 357 | 0.9 | 6.1 | 0.00 | 0.00 | 0.00 | 57 | 1009.6 |
| 20260501232945 | 60 | 333 | 2.6 | 6.1 | 0.00 | 0.00 | 0.00 | 57 | 1009.6 |
| 20260501232904 | 60 | 360 | 3.5 | 6.1 | 0.00 | 0.00 | 0.00 | 57 | 1009.8 |
| 20260501232726 | 60 | 330 | 2.6 | 6.1 | 0.00 | 0.00 | 0.00 | 56 | 1009.8 |
| 20260501232644 | 60 | 330 | 2.6 | 6.1 | 0.00 | 0.00 | 0.00 | 56 | 1009.8 |
| 20260501232603 | 60 | 360 | 3.5 | 6.1 | 0.00 | 0.00 | 0.00 | 56 | 1009.8 |
| 20260501232441 | 60 | 328 | 2.6 | 6.1 | 0.00 | 0.00 | 0.00 | 57 | 1009.8 |
| 20260501232341 | 60 | 337 | 0.9 | 6.1 | 0.00 | 0.00 | 0.00 | 57 | 1009.8 |
| 20260501232258 | 60 | 336 | 3.5 | 6.1 | 0.00 | 0.00 | 0.00 | 57 | 1009.8 |
| 20260501232135 | 60 | 337 | 1.7 | 6.1 | 0.00 | 0.00 | 0.00 | 57 | 1009.8 |
| 20260501232034 | 60 | 346 | 2.6 | 6.1 | 0.00 | 0.00 | 0.00 | 57 | 1009.8 |
| 20260501231936 | 60 | 349 | 3.5 | 6.1 | 0.00 | 0.00 | 0.00 | 57 | 1009.8 |
| 20260501231732 | 60 | 330 | 1.7 | 6.1 | 0.00 | 0.00 | 0.00 | 56 | 1009.8 |
| 20260501231700 | 60 | 342 | 1.7 | 6.1 | 0.00 | 0.00 | 0.00 | 56 | 1009.8 |
| 20260501231539 | 60 | 344 | 0.9 | 6.1 | 0.00 | 0.00 | 0.00 | 56 | 1009.8 |
| 20260501231458 | 60 | 335 | 0.9 | 6.1 | 0.00 | 0.00 | 0.00 | 57 | 1009.8 |
| 20260501231355 | 60 | 340 | 2.6 | 6.1 | 0.00 | 0.00 | 0.00 | 57 | 1009.8 |
| 20260501231233 | 60 | 342 | 5.2 | 6.1 | 0.00 | 0.00 | 0.00 | 56 | 1009.8 |
| 20260501231135 | 60 | 337 | 3.5 | 6.1 | 0.00 | 0.00 | 0.00 | 56 | 1009.8 |
| 20260501231034 | 60 | 325 | 1.7 | 6.1 | 0.00 | 0.00 | 0.00 | 56 | 1009.8 |
| 20260501230932 | 60 | 339 | 3.5 | 6.1 | 0.00 | 0.00 | 0.00 | 56 | 1009.8 |
| 20260501230830 | 60 | 337 | 3.5 | 6.1 | 0.00 | 0.00 | 0.00 | 56 | 1009.8 |
| 20260501230730 | 61 | 339 | 2.6 | 6.1 | 0.00 | 0.00 | 0.00 | 56 | 1009.8 |
| 20260501230630 | 61 | 337 | 3.5 | 6.1 | 0.00 | 0.00 | 0.00 | 56 | 1009.8 |
| 20260501230531 | 61 | 333 | 3.5 | 6.1 | 0.00 | 0.00 | 0.00 | 56 | 1009.8 |
| 20260501230429 | 61 | 342 | 2.6 | 5.2 | 0.00 | 0.00 | 0.00 | 57 | 1009.8 |
| 20260501230328 | 61 | 329 | 0.9 | 5.2 | 0.00 | 0.00 | 0.00 | 57 | 1009.8 |
| 20260501230239 | 61 | 337 | 1.7 | 5.2 | 0.00 | 0.00 | 0.00 | 58 | 1009.8 |
| 20260501230148 | 61 | 342 | 1.7 | 5.2 | 0.00 | 0.00 | 0.00 | 57 | 1009.8 |
| 20260501230024 | 61 | 340 | 1.7 | 5.2 | 0.00 | 0.00 | 0.00 | 57 | 1009.8 |
| 20260501225943 | 61 | 340 | 1.7 | 5.2 | 0.00 | 0.00 | 0.00 | 57 | 1009.8 |
| 20260501225841 | 61 | 342 | 2.6 | 6.1 | 0.00 | 0.00 | 0.00 | 57 | 1009.8 |
| 20260501225804 | 61 | 330 | 2.6 | 6.1 | 0.00 | 0.00 | 0.00 | 57 | 1009.8 |
| 20260501225640 | 61 | 333 | 1.7 | 6.1 | 0.00 | 0.00 | 0.00 | 57 | 1009.8 |
| 20260501225540 | 61 | 333 | 1.7 | 6.1 | 0.00 | 0.00 | 0.00 | 56 | 1009.8 |
| 20260501225439 | 61 | 326 | 0.9 | 6.1 | 0.00 | 0.00 | 0.00 | 56 | 1009.8 |
| 20260501225337 | 61 | 335 | 1.7 | 6.1 | 0.00 | 0.00 | 0.00 | 57 | 1009.8 |
| 20260501225233 | 61 | 336 | 2.6 | 6.1 | 0.00 | 0.00 | 0.00 | 57 | 1009.8 |
| 20260501225152 | 61 | 335 | 3.5 | 6.1 | 0.00 | 0.00 | 0.00 | 56 | 1009.8 |
| 20260501225028 | 61 | 337 | 3.5 | 6.1 | 0.00 | 0.00 | 0.00 | 56 | 1009.8 |
| 20260501224931 | 61 | 336 | 4.3 | 6.1 | 0.00 | 0.00 | 0.00 | 56 | 1009.8 |
| 20260501224829 | 61 | 346 | 0.9 | 4.3 | 0.00 | 0.00 | 0.00 | 56 | 1009.8 |
| 20260501224738 | 61 | 346 | 1.7 | 4.3 | 0.00 | 0.00 | 0.00 | 56 | 1009.8 |
| 20260501224648 | 61 | 347 | 1.7 | 4.3 | 0.00 | 0.00 | 0.00 | 55 | 1009.8 |
| 20260501224545 | 61 | 349 | 0.9 | 4.3 | 0.00 | 0.00 | 0.00 | 56 | 1009.8 |
| 20260501224503 | 61 | 330 | 0.9 | 5.2 | 0.00 | 0.00 | 0.00 | 54 | 1009.8 |
| 20260501224340 | 61 | 347 | 1.7 | 5.2 | 0.00 | 0.00 | 0.00 | 55 | 1009.5 |
| 20260501224240 | 61 | 337 | 1.7 | 5.2 | 0.00 | 0.00 | 0.00 | 55 | 1009.5 |
| 20260501224142 | 61 | 330 | 1.7 | 5.2 | 0.00 | 0.00 | 0.00 | 55 | 1009.5 |
| 20260501224100 | 61 | 344 | 2.6 | 5.2 | 0.00 | 0.00 | 0.00 | 56 | 1009.5 |
| 20260501223958 | 61 | 350 | 2.6 | 5.2 | 0.00 | 0.00 | 0.00 | 55 | 1009.5 |
| 20260501223835 | 61 | 347 | 1.7 | 5.2 | 0.00 | 0.00 | 0.00 | 55 | 1009.5 |
| 20260501223734 | 61 | 350 | 0.9 | 5.2 | 0.00 | 0.00 | 0.00 | 54 | 1009.5 |
| 20260501223631 | 61 | 336 | 4.3 | 5.2 | 0.00 | 0.00 | 0.00 | 55 | 1009.5 |
| 20260501223529 | 61 | 335 | 1.7 | 4.3 | 0.00 | 0.00 | 0.00 | 56 | 1009.5 |
| 20260501223432 | 61 | 347 | 0.9 | 5.2 | 0.00 | 0.00 | 0.00 | 56 | 1009.5 |
| 20260501223332 | 61 | 340 | 0.9 | 5.2 | 0.00 | 0.00 | 0.00 | 56 | 1009.5 |
| 20260501223302 | 61 | 347 | 0.9 | 5.2 | 0.00 | 0.00 | 0.00 | 56 | 1009.5 |
| 20260501223150 | 61 | 344 | 1.7 | 5.2 | 0.00 | 0.00 | 0.00 | 55 | 1009.5 |
| 20260501223027 | 61 | 349 | 1.7 | 5.2 | 0.00 | 0.00 | 0.00 | 54 | 1009.5 |
| 20260501222944 | 61 | 347 | 1.7 | 5.2 | 0.00 | 0.00 | 0.00 | 54 | 1009.5 |
| 20260501222903 | 61 | 329 | 1.7 | 5.2 | 0.00 | 0.00 | 0.00 | 54 | 1009.0 |
| 20260501222739 | 61 | 349 | 1.7 | 5.2 | 0.00 | 0.00 | 0.00 | 54 | 1009.0 |
| 20260501222658 | 62 | 329 | 2.6 | 5.2 | 0.00 | 0.00 | 0.00 | 55 | 1009.0 |
| 20260501222539 | 62 | 342 | 2.6 | 5.2 | 0.00 | 0.00 | 0.00 | 56 | 1009.0 |
| 20260501222438 | 62 | 350 | 2.6 | 3.5 | 0.00 | 0.00 | 0.00 | 56 | 1009.0 |
| 20260501222336 | 62 | 349 | 1.7 | 2.6 | 0.00 | 0.00 | 0.00 | 56 | 1009.0 |
| 20260501222255 | 62 | 346 | 0.9 | 3.5 | 0.00 | 0.00 | 0.00 | 56 | 1009.0 |
| 20260501222153 | 62 | 349 | 1.7 | 3.5 | 0.00 | 0.00 | 0.00 | 56 | 1009.0 |
| 20260501222029 | 62 | 349 | 0.9 | 4.3 | 0.00 | 0.00 | 0.00 | 57 | 1009.0 |
| 20260501221928 | 62 | 346 | 0.9 | 6.1 | 0.00 | 0.00 | 0.00 | 56 | 1009.0 |
| 20260501221826 | 62 | 347 | 0.0 | 6.1 | 0.00 | 0.00 | 0.00 | 56 | 1009.0 |
| 20260501221728 | 62 | 349 | 0.9 | 6.1 | 0.00 | 0.00 | 0.00 | 55 | 1009.0 |
| 20260501221656 | 62 | 347 | 0.0 | 6.1 | 0.00 | 0.00 | 0.00 | 54 | 1009.0 |
| 20260501221534 | 62 | 349 | 0.0 | 6.1 | 0.00 | 0.00 | 0.00 | 53 | 1009.0 |
| 20260501221432 | 62 | 350 | 1.7 | 7.8 | 0.00 | 0.00 | 0.00 | 52 | 1009.0 |
| 20260501221330 | 62 | 350 | 1.7 | 7.8 | 0.00 | 0.00 | 0.00 | 53 | 1009.2 |
| 20260501221229 | 62 | 343 | 1.7 | 7.8 | 0.00 | 0.00 | 0.00 | 53 | 1009.2 |
| 20260501221126 | 62 | 335 | 3.5 | 7.8 | 0.00 | 0.00 | 0.00 | 52 | 1009.2 |
| 20260501221028 | 62 | 352 | 1.7 | 7.8 | 0.00 | 0.00 | 0.00 | 52 | 1009.2 |
| 20260501220948 | 62 | 352 | 4.3 | 7.8 | 0.00 | 0.00 | 0.00 | 52 | 1009.2 |
| 20260501220825 | 62 | 346 | 3.5 | 7.8 | 0.00 | 0.00 | 0.00 | 52 | 1009.2 |
| 20260501220742 | 62 | 335 | 3.5 | 7.8 | 0.00 | 0.00 | 0.00 | 54 | 1009.2 |
| 20260501220640 | 62 | 329 | 3.5 | 7.8 | 0.00 | 0.00 | 0.00 | 53 | 1009.2 |
| 20260501220539 | 62 | 330 | 3.5 | 7.0 | 0.00 | 0.00 | 0.00 | 53 | 1009.2 |
| 20260501220436 | 62 | 328 | 4.3 | 7.8 | 0.00 | 0.00 | 0.00 | 53 | 1009.2 |
| 20260501220339 | 62 | 332 | 4.3 | 7.8 | 0.00 | 0.00 | 0.00 | 52 | 1009.2 |
| 20260501220258 | 62 | 332 | 4.3 | 7.8 | 0.00 | 0.00 | 0.00 | 52 | 1009.2 |
| 20260501220146 | 62 | 329 | 2.6 | 7.8 | 0.00 | 0.00 | 0.00 | 54 | 1009.2 |
| 20260501220042 | 62 | 332 | 4.3 | 7.8 | 0.00 | 0.00 | 0.00 | 55 | 1009.2 |
| 20260501215940 | 62 | 322 | 4.3 | 7.8 | 0.00 | 0.00 | 0.00 | 55 | 1009.2 |
| 20260501215840 | 62 | 320 | 4.3 | 7.8 | 0.00 | 0.00 | 0.00 | 54 | 1009.1 |
| 20260501215741 | 62 | 335 | 3.5 | 7.8 | 0.00 | 0.00 | 0.00 | 53 | 1009.1 |
| 20260501215700 | 62 | 319 | 4.3 | 7.8 | 0.00 | 0.00 | 0.00 | 52 | 1009.1 |
| 20260501215536 | 62 | 344 | 6.1 | 7.8 | 0.00 | 0.00 | 0.00 | 53 | 1009.1 |
| 20260501215438 | 62 | 328 | 3.5 | 7.0 | 0.00 | 0.00 | 0.00 | 55 | 1009.1 |
| 20260501215336 | 62 | 344 | 1.7 | 7.0 | 0.00 | 0.00 | 0.00 | 53 | 1009.1 |
| 20260501215234 | 62 | 319 | 2.6 | 7.0 | 0.00 | 0.00 | 0.00 | 52 | 1009.1 |
| 20260501215153 | 62 | 329 | 3.5 | 7.0 | 0.00 | 0.00 | 0.00 | 53 | 1009.1 |
| 20260501215034 | 62 | 344 | 2.6 | 7.8 | 0.00 | 0.00 | 0.00 | 53 | 1009.1 |
| 20260501214931 | 62 | 343 | 6.1 | 7.8 | 0.00 | 0.00 | 0.00 | 53 | 1009.1 |
| 20260501214850 | 62 | 323 | 4.3 | 7.8 | 0.00 | 0.00 | 0.00 | 52 | 1009.1 |
| 20260501214748 | 62 | 337 | 1.7 | 7.8 | 0.00 | 0.00 | 0.00 | 52 | 1009.1 |
| 20260501214718 | 62 | 328 | 0.9 | 7.8 | 0.00 | 0.00 | 0.00 | 54 | 1009.1 |
| 20260501214539 | 62 | 332 | 0.0 | 7.8 | 0.00 | 0.00 | 0.00 | 53 | 1009.1 |
| 20260501214438 | 62 | 329 | 0.9 | 7.8 | 0.00 | 0.00 | 0.00 | 53 | 1009.1 |
| 20260501214335 | 62 | 346 | 3.5 | 7.8 | 0.00 | 0.00 | 0.00 | 54 | 1009.2 |
| 20260501214234 | 62 | 344 | 4.3 | 7.8 | 0.00 | 0.00 | 0.00 | 53 | 1009.2 |
| 20260501214133 | 62 | 332 | 4.3 | 7.8 | 0.00 | 0.00 | 0.00 | 53 | 1009.2 |
| 20260501214031 | 62 | 332 | 3.5 | 7.8 | 0.00 | 0.00 | 0.00 | 53 | 1009.2 |
| 20260501213932 | 62 | 328 | 3.5 | 7.8 | 0.00 | 0.00 | 0.00 | 53 | 1009.2 |
| 20260501213830 | 62 | 326 | 1.7 | 7.0 | 0.00 | 0.00 | 0.00 | 53 | 1009.2 |
| 20260501213729 | 62 | 352 | 0.9 | 7.0 | 0.00 | 0.00 | 0.00 | 53 | 1009.2 |
| 20260501213627 | 62 | 347 | 0.9 | 7.0 | 0.00 | 0.00 | 0.00 | 52 | 1009.2 |
| 20260501213526 | 62 | 349 | 1.7 | 7.0 | 0.00 | 0.00 | 0.00 | 52 | 1009.2 |
| 20260501213424 | 62 | 330 | 5.2 | 7.0 | 0.00 | 0.00 | 0.00 | 51 | 1009.2 |
| 20260501213343 | 62 | 330 | 6.1 | 7.0 | 0.00 | 0.00 | 0.00 | 50 | 1009.2 |
| 20260501213237 | 62 | 340 | 0.9 | 6.1 | 0.00 | 0.00 | 0.00 | 53 | 1009.2 |
| 20260501213147 | 62 | 264 | 0.9 | 6.1 | 0.00 | 0.00 | 0.00 | 52 | 1009.2 |
| 20260501213024 | 62 | 295 | 3.5 | 6.1 | 0.00 | 0.00 | 0.00 | 50 | 1009.2 |
| 20260501212942 | 62 | 90 | 4.3 | 6.1 | 0.00 | 0.00 | 0.00 | 53 | 1009.2 |
| 20260501212841 | 62 | 127 | 3.5 | 6.1 | 0.00 | 0.00 | 0.00 | 53 | 1009.6 |
| 20260501212741 | 62 | 31 | 4.3 | 6.1 | 0.00 | 0.00 | 0.00 | 55 | 1009.6 |
| 20260501212639 | 62 | 332 | 3.5 | 6.1 | 0.00 | 0.00 | 0.00 | 55 | 1009.6 |
| 20260501212541 | 62 | 329 | 1.7 | 6.1 | 0.00 | 0.00 | 0.00 | 55 | 1009.6 |
| 20260501212440 | 62 | 328 | 1.7 | 6.1 | 0.00 | 0.00 | 0.00 | 53 | 1009.6 |
| 20260501212338 | 62 | 349 | 0.9 | 6.1 | 0.00 | 0.00 | 0.00 | 52 | 1009.6 |
| 20260501212237 | 62 | 332 | 2.6 | 6.1 | 0.00 | 0.00 | 0.00 | 52 | 1009.6 |
| 20260501212136 | 62 | 349 | 3.5 | 6.1 | 0.00 | 0.00 | 0.00 | 53 | 1009.6 |
| 20260501212053 | 62 | 330 | 2.6 | 6.1 | 0.00 | 0.00 | 0.00 | 53 | 1009.6 |
| 20260501211932 | 62 | 330 | 3.5 | 6.1 | 0.00 | 0.00 | 0.00 | 52 | 1009.6 |
| 20260501211850 | 62 | 330 | 4.3 | 8.7 | 0.00 | 0.00 | 0.00 | 53 | 1009.6 |
| 20260501211753 | 62 | 346 | 4.3 | 8.7 | 0.00 | 0.00 | 0.00 | 51 | 1009.6 |
| 20260501211722 | 62 | 97 | 3.5 | 8.7 | 0.00 | 0.00 | 0.00 | 50 | 1009.6 |
| 20260501211539 | 62 | 325 | 4.3 | 8.7 | 0.00 | 0.00 | 0.00 | 53 | 1009.6 |
| 20260501211438 | 62 | 328 | 2.6 | 8.7 | 0.00 | 0.00 | 0.00 | 54 | 1009.6 |
| 20260501211358 | 62 | 329 | 0.9 | 8.7 | 0.00 | 0.00 | 0.00 | 53 | 1009.8 |
| 20260501211235 | 62 | 330 | 1.7 | 8.7 | 0.00 | 0.00 | 0.00 | 53 | 1009.8 |
| 20260501211133 | 62 | 333 | 1.7 | 8.7 | 0.00 | 0.00 | 0.00 | 51 | 1009.8 |
| 20260501211032 | 62 | 329 | 5.2 | 8.7 | 0.00 | 0.00 | 0.00 | 54 | 1009.8 |
| 20260501210933 | 62 | 332 | 5.2 | 8.7 | 0.00 | 0.00 | 0.00 | 53 | 1009.8 |
| 20260501210852 | 62 | 330 | 2.6 | 6.1 | 0.00 | 0.00 | 0.00 | 53 | 1009.8 |
| 20260501210731 | 61 | 333 | 0.9 | 7.0 | 0.00 | 0.00 | 0.00 | 51 | 1009.8 |
| 20260501210628 | 61 | 335 | 3.5 | 7.0 | 0.00 | 0.00 | 0.00 | 53 | 1009.8 |
| 20260501210547 | 61 | 337 | 1.7 | 7.0 | 0.00 | 0.00 | 0.00 | 51 | 1009.8 |
| 20260501210424 | 61 | 336 | 4.3 | 7.0 | 0.00 | 0.00 | 0.00 | 51 | 1009.8 |
| 20260501210342 | 61 | 326 | 3.5 | 7.0 | 0.00 | 0.00 | 0.00 | 54 | 1009.8 |
| 20260501210225 | 61 | 326 | 1.7 | 7.0 | 0.00 | 0.00 | 0.00 | 53 | 1009.8 |
| 20260501210155 | 61 | 326 | 3.5 | 7.0 | 0.00 | 0.00 | 0.00 | 53 | 1009.8 |
| 20260501210031 | 61 | 328 | 4.3 | 7.0 | 0.00 | 0.00 | 0.00 | 52 | 1009.8 |
| 20260501205930 | 61 | 328 | 5.2 | 7.0 | 0.00 | 0.00 | 0.00 | 52 | 1009.8 |
| 20260501205828 | 61 | 323 | 4.3 | 7.0 | 0.00 | 0.00 | 0.00 | 55 | 1010.2 |
| 20260501205727 | 61 | 323 | 2.6 | 6.1 | 0.00 | 0.00 | 0.00 | 53 | 1010.2 |
| 20260501205644 | 61 | 319 | 1.7 | 5.2 | 0.00 | 0.00 | 0.00 | 53 | 1010.2 |
| 20260501205525 | 61 | 329 | 2.6 | 5.2 | 0.00 | 0.00 | 0.00 | 56 | 1010.2 |
| 20260501205424 | 61 | 328 | 0.9 | 5.2 | 0.00 | 0.00 | 0.00 | 57 | 1010.2 |
| 20260501205343 | 61 | 323 | 1.7 | 5.2 | 0.00 | 0.00 | 0.00 | 57 | 1010.2 |
| 20260501205243 | 61 | 323 | 0.9 | 6.1 | 0.00 | 0.00 | 0.00 | 56 | 1010.2 |
| 20260501205200 | 61 | 326 | 0.0 | 6.1 | 0.00 | 0.00 | 0.00 | 55 | 1010.2 |
| 20260501205058 | 61 | 326 | 0.9 | 6.1 | 0.00 | 0.00 | 0.00 | 54 | 1010.2 |
| 20260501204936 | 61 | 320 | 1.7 | 6.1 | 0.00 | 0.00 | 0.00 | 53 | 1010.2 |
| 20260501204833 | 61 | 330 | 0.0 | 6.1 | 0.00 | 0.00 | 0.00 | 53 | 1010.2 |
| 20260501204743 | 61 | 325 | 0.9 | 6.1 | 0.00 | 0.00 | 0.00 | 52 | 1010.2 |
| 20260501204656 | 61 | 323 | 2.6 | 6.1 | 0.00 | 0.00 | 0.00 | 53 | 1010.2 |
| 20260501204553 | 61 | 325 | 4.3 | 6.1 | 0.00 | 0.00 | 0.00 | 56 | 1010.2 |
| 20260501204430 | 61 | 326 | 4.3 | 6.1 | 0.00 | 0.00 | 0.00 | 56 | 1010.2 |
| 20260501204329 | 61 | 326 | 3.5 | 4.3 | 0.00 | 0.00 | 0.00 | 55 | 1010.5 |
| 20260501204247 | 61 | 319 | 1.7 | 4.3 | 0.00 | 0.00 | 0.00 | 54 | 1010.5 |
| 20260501204143 | 61 | 326 | 1.7 | 6.1 | 0.00 | 0.00 | 0.00 | 54 | 1010.5 |
| 20260501204042 | 61 | 322 | 0.9 | 6.1 | 0.00 | 0.00 | 0.00 | 56 | 1010.5 |
| 20260501203941 | 61 | 319 | 0.9 | 6.1 | 0.00 | 0.00 | 0.00 | 55 | 1010.5 |
| 20260501203842 | 61 | 325 | 1.7 | 6.1 | 0.00 | 0.00 | 0.00 | 55 | 1010.5 |
| 20260501203741 | 61 | 320 | 2.6 | 6.1 | 0.00 | 0.00 | 0.00 | 54 | 1010.5 |
| 20260501203659 | 61 | 323 | 2.6 | 6.1 | 0.00 | 0.00 | 0.00 | 54 | 1010.5 |
| 20260501203557 | 61 | 322 | 1.7 | 6.1 | 0.00 | 0.00 | 0.00 | 52 | 1010.5 |